Time,TemperatureF,DewpointF,PressureIn,WindDirection,WindDirectionDegrees,WindSpeedMPH,WindSpeedGustMPH,Humidity,HourlyPrecipIn,Conditions,Clouds,dailyrainin,SoftwareType,DateUTC
2013-08-24 00:00:00,79.0,70.0,29.65,SE,135,0.0,0.0,74,0.00,CLR,,0.00,WeatherDisplay:10.37,2013-08-24 05:00:00,
2013-08-24 00:04:00,79.0,70.8,29.65,ESE,112,2.3,2.3,76,0.00,CLR,,0.00,WeatherDisplay:10.37,2013-08-24 05:04:00,
2013-08-24 00:05:00,79.0,70.8,29.65,ESE,112,1.2,0.0,76,0.00,CLR,,0.00,WeatherDisplay:10.37,2013-08-24 05:05:00,
2013-08-24 00:09:00,79.0,70.8,29.65,ESE,112,0.0,0.0,76,0.00,CLR,,0.00,WeatherDisplay:10.37,2013-08-24 05:09:00,
2013-08-24 00:10:00,79.0,70.8,29.65,ESE,112,0.0,0.0,76,0.00,CLR,,0.00,WeatherDisplay:10.37,2013-08-24 05:10:00,
2013-08-24 00:14:00,79.0,70.8,29.65,ESE,112,0.0,0.0,76,0.00,CLR,,0.00,WeatherDisplay:10.37,2013-08-24 05:14:00,
2013-08-24 00:15:00,79.0,70.8,29.65,ESE,112,0.0,0.0,76,0.00,CLR,,0.00,WeatherDisplay:10.37,2013-08-24 05:15:00,
2013-08-24 00:19:00,79.0,70.8,29.65,ESE,112,0.0,0.0,76,0.00,CLR,,0.00,WeatherDisplay:10.37,2013-08-24 05:19:00,
2013-08-24 00:20:00,79.0,70.8,29.65,ESE,112,0.0,0.0,76,0.00,CLR,,0.00,WeatherDisplay:10.37,2013-08-24 05:20:00,
2013-08-24 00:24:00,78.0,69.8,29.65,ESE,112,0.0,0.0,76,0.00,CLR,,0.00,WeatherDisplay:10.37,2013-08-24 05:24:00,
2013-08-24 00:25:00,78.0,69.8,29.65,ESE,112,0.0,0.0,76,0.00,CLR,,0.00,WeatherDisplay:10.37,2013-08-24 05:25:00,
2013-08-24 00:26:00,78.0,69.8,29.65,ESE,112,0.0,0.0,76,0.00,CLR,,0.00,WeatherDisplay:10.37,2013-08-24 05:26:00,
2013-08-24 00:29:00,78.0,70.6,29.65,ESE,112,0.0,0.0,78,0.00,CLR,,0.00,WeatherDisplay:10.37,2013-08-24 05:29:00,
2013-08-24 00:30:00,78.0,70.6,29.65,ESE,112,0.0,0.0,78,0.00,CLR,,0.00,WeatherDisplay:10.37,2013-08-24 05:30:00,
2013-08-24 00:31:00,78.0,70.6,29.65,ESE,112,0.0,0.0,78,0.00,CLR,,0.00,WeatherDisplay:10.37,2013-08-24 05:31:00,
2013-08-24 00:35:00,78.0,71.0,29.65,ESE,112,0.0,0.0,79,0.00,CLR,,0.00,WeatherDisplay:10.37,2013-08-24 05:35:00,
2013-08-24 00:36:00,78.0,71.0,29.65,ESE,112,0.0,0.0,79,0.00,CLR,,0.00,WeatherDisplay:10.37,2013-08-24 05:36:00,
2013-08-24 00:40:00,78.0,71.0,29.65,ESE,112,0.0,0.0,79,0.00,CLR,,0.00,WeatherDisplay:10.37,2013-08-24 05:40:00,
2013-08-24 00:41:00,78.0,71.0,29.65,ESE,112,0.0,0.0,79,0.00,CLR,,0.00,WeatherDisplay:10.37,2013-08-24 05:41:00,
2013-08-24 00:42:00,78.0,71.0,29.65,ESE,112,0.0,0.0,79,0.00,CLR,,0.00,WeatherDisplay:10.37,2013-08-24 05:42:00,
2013-08-24 00:45:00,78.0,71.0,29.65,ESE,112,0.0,0.0,79,0.00,CLR,,0.00,WeatherDisplay:10.37,2013-08-24 05:45:00,
2013-08-24 00:46:00,78.0,71.0,29.65,ESE,112,0.0,0.0,79,0.00,CLR,,0.00,WeatherDisplay:10.37,2013-08-24 05:46:00,
2013-08-24 00:47:00,78.0,71.0,29.65,ESE,112,0.0,0.0,79,0.00,CLR,,0.00,WeatherDisplay:10.37,2013-08-24 05:47:00,
2013-08-24 00:50:00,78.0,71.0,29.65,ESE,112,0.0,0.0,79,0.00,CLR,,0.00,WeatherDisplay:10.37,2013-08-24 05:50:00,
2013-08-24 00:51:00,78.0,71.0,29.65,ESE,112,0.0,0.0,79,0.00,CLR,,0.00,WeatherDisplay:10.37,2013-08-24 05:51:00,
2013-08-24 00:52:00,78.0,71.0,29.65,ESE,112,0.0,0.0,79,0.00,CLR,,0.00,WeatherDisplay:10.37,2013-08-24 05:52:00,
2013-08-24 00:55:00,77.0,70.0,29.65,ESE,112,0.0,0.0,79,0.00,CLR,,0.00,WeatherDisplay:10.37,2013-08-24 05:55:00,
2013-08-24 00:56:00,77.0,70.0,29.65,ESE,112,0.0,0.0,79,0.00,CLR,,0.00,WeatherDisplay:10.37,2013-08-24 05:56:00,
2013-08-24 00:57:00,77.0,70.4,29.65,ESE,112,0.0,0.0,80,0.00,CLR,,0.00,WeatherDisplay:10.37,2013-08-24 05:57:00,
2013-08-24 01:01:00,77.0,70.7,29.65,ESE,112,0.0,0.0,81,0.00,CLR,,0.00,WeatherDisplay:10.37,2013-08-24 06:01:00,
2013-08-24 01:02:00,77.0,70.7,29.65,ESE,112,0.0,0.0,81,0.00,CLR,,0.00,WeatherDisplay:10.37,2013-08-24 06:02:00,
2013-08-24 01:03:00,77.0,70.7,29.65,ESE,112,0.0,0.0,81,0.00,CLR,,0.00,WeatherDisplay:10.37,2013-08-24 06:03:00,
2013-08-24 01:06:00,77.0,71.1,29.65,ESE,112,0.0,0.0,82,0.00,CLR,,0.00,WeatherDisplay:10.37,2013-08-24 06:06:00,
2013-08-24 01:07:00,77.0,71.1,29.65,ESE,112,0.0,0.0,82,0.00,CLR,,0.00,WeatherDisplay:10.37,2013-08-24 06:07:00,
2013-08-24 01:08:00,78.0,71.7,29.65,ESE,112,0.0,0.0,81,0.00,CLR,,0.00,WeatherDisplay:10.37,2013-08-24 06:08:00,
2013-08-24 01:11:00,77.0,71.1,29.65,ESE,112,0.0,0.0,82,0.00,CLR,,0.00,WeatherDisplay:10.37,2013-08-24 06:11:00,
2013-08-24 01:12:00,78.0,72.1,29.65,ESE,112,0.0,0.0,82,0.00,CLR,,0.00,WeatherDisplay:10.37,2013-08-24 06:12:00,
2013-08-24 01:13:00,78.0,72.1,29.65,ESE,112,0.0,0.0,82,0.00,CLR,,0.00,WeatherDisplay:10.37,2013-08-24 06:13:00,
2013-08-24 01:16:00,78.0,71.7,29.65,ESE,112,0.0,0.0,81,0.00,CLR,,0.00,WeatherDisplay:10.37,2013-08-24 06:16:00,
2013-08-24 01:17:00,78.0,71.7,29.65,ESE,112,0.0,0.0,81,0.00,CLR,,0.00,WeatherDisplay:10.37,2013-08-24 06:17:00,
2013-08-24 01:18:00,78.0,71.7,29.65,ESE,112,0.0,0.0,81,0.00,CLR,,0.00,WeatherDisplay:10.37,2013-08-24 06:18:00,
2013-08-24 01:21:00,78.0,72.4,29.65,ESE,112,0.0,0.0,83,0.00,CLR,,0.00,WeatherDisplay:10.37,2013-08-24 06:21:00,
2013-08-24 01:22:00,78.0,72.4,29.65,ESE,112,0.0,0.0,83,0.00,CLR,,0.00,WeatherDisplay:10.37,2013-08-24 06:22:00,
2013-08-24 01:23:00,78.0,72.4,29.65,ESE,112,0.0,0.0,83,0.00,CLR,,0.00,WeatherDisplay:10.37,2013-08-24 06:23:00,
2013-08-24 01:26:00,78.0,72.1,29.65,ESE,112,0.0,0.0,82,0.00,CLR,,0.00,WeatherDisplay:10.37,2013-08-24 06:26:00,
2013-08-24 01:27:00,78.0,72.1,29.65,ESE,112,0.0,0.0,82,0.00,CLR,,0.00,WeatherDisplay:10.37,2013-08-24 06:27:00,
2013-08-24 01:28:00,78.0,71.7,29.65,ESE,112,0.0,0.0,81,0.00,CLR,,0.00,WeatherDisplay:10.37,2013-08-24 06:28:00,
2013-08-24 01:29:00,78.0,72.4,29.65,ESE,112,0.0,0.0,83,0.00,CLR,,0.00,WeatherDisplay:10.37,2013-08-24 06:29:00,
2013-08-24 01:32:00,78.0,72.4,29.65,ESE,112,0.0,0.0,83,0.00,CLR,,0.00,WeatherDisplay:10.37,2013-08-24 06:32:00,
2013-08-24 01:33:00,78.0,72.4,29.65,ESE,112,0.0,0.0,83,0.00,CLR,,0.00,WeatherDisplay:10.37,2013-08-24 06:33:00,
2013-08-24 01:34:00,78.0,72.4,29.65,ESE,112,0.0,0.0,83,0.00,CLR,,0.00,WeatherDisplay:10.37,2013-08-24 06:34:00,
2013-08-24 01:37:00,78.0,72.1,29.65,ESE,112,0.0,0.0,82,0.00,CLR,,0.00,WeatherDisplay:10.37,2013-08-24 06:37:00,
2013-08-24 01:38:00,78.0,72.1,29.65,ESE,112,0.0,0.0,82,0.00,CLR,,0.00,WeatherDisplay:10.37,2013-08-24 06:38:00,
2013-08-24 01:39:00,78.0,72.4,29.65,ESE,112,0.0,0.1,83,0.00,CLR,,0.00,WeatherDisplay:10.37,2013-08-24 06:39:00,
2013-08-24 01:42:00,78.0,72.4,29.65,ESE,112,0.0,0.0,83,0.00,CLR,,0.00,WeatherDisplay:10.37,2013-08-24 06:42:00,
2013-08-24 01:43:00,78.0,72.4,29.65,ESE,112,0.0,0.0,83,0.00,CLR,,0.00,WeatherDisplay:10.37,2013-08-24 06:43:00,
2013-08-24 01:44:00,78.0,72.4,29.65,ESE,112,0.0,0.0,83,0.00,CLR,,0.00,WeatherDisplay:10.37,2013-08-24 06:44:00,
2013-08-24 01:47:00,79.0,73.0,29.65,ESE,112,0.0,0.0,82,0.00,CLR,,0.00,WeatherDisplay:10.37,2013-08-24 06:47:00,
2013-08-24 01:48:00,79.0,73.0,29.65,ESE,112,0.0,0.0,82,0.00,CLR,,0.00,WeatherDisplay:10.37,2013-08-24 06:48:00,
2013-08-24 01:49:00,78.0,72.4,29.65,ESE,112,0.0,0.2,83,0.00,CLR,,0.00,WeatherDisplay:10.37,2013-08-24 06:49:00,
2013-08-24 01:52:00,79.0,73.4,29.65,ESE,112,3.5,3.5,83,0.00,CLR,,0.00,WeatherDisplay:10.37,2013-08-24 06:52:00,
2013-08-24 01:53:00,79.0,73.4,29.65,ESE,112,3.5,3.5,83,0.00,CLR,,0.00,WeatherDisplay:10.37,2013-08-24 06:53:00,
2013-08-24 01:54:00,79.0,73.4,29.65,ESE,112,0.0,0.0,83,0.00,CLR,,0.00,WeatherDisplay:10.37,2013-08-24 06:54:00,
2013-08-24 01:58:00,79.0,73.0,29.65,ESE,112,3.5,3.5,82,0.00,CLR,,0.00,WeatherDisplay:10.37,2013-08-24 06:58:00,
2013-08-24 01:59:00,79.0,73.4,29.65,ESE,112,0.0,0.0,83,0.00,CLR,,0.00,WeatherDisplay:10.37,2013-08-24 06:59:00,
2013-08-24 02:03:00,79.0,73.4,29.65,ESE,112,3.5,3.5,83,0.00,CLR,,0.00,WeatherDisplay:10.37,2013-08-24 07:03:00,
2013-08-24 02:04:00,79.0,73.0,29.65,ESE,112,2.3,0.0,82,0.00,CLR,,0.00,WeatherDisplay:10.37,2013-08-24 07:04:00,
2013-08-24 02:08:00,80.0,73.6,29.65,ESE,112,3.5,3.5,81,0.00,CLR,,0.00,WeatherDisplay:10.37,2013-08-24 07:08:00,
2013-08-24 02:09:00,79.0,73.0,29.65,SE,135,3.5,3.5,82,0.00,CLR,,0.00,WeatherDisplay:10.37,2013-08-24 07:09:00,
2013-08-24 02:13:00,80.0,73.6,29.65,ESE,112,2.3,2.3,81,0.00,CLR,,0.00,WeatherDisplay:10.37,2013-08-24 07:13:00,
2013-08-24 02:14:00,80.0,73.6,29.65,ESE,112,0.0,0.0,81,0.00,CLR,,0.00,WeatherDisplay:10.37,2013-08-24 07:14:00,
2013-08-24 02:18:00,80.0,73.3,29.65,ESE,112,0.0,0.0,80,0.00,CLR,,0.00,WeatherDisplay:10.37,2013-08-24 07:18:00,
2013-08-24 02:19:00,80.0,73.3,29.65,ESE,112,0.0,0.0,80,0.00,CLR,,0.00,WeatherDisplay:10.37,2013-08-24 07:19:00,
2013-08-24 02:23:00,80.0,73.6,29.65,ESE,112,0.0,0.0,81,0.00,CLR,,0.00,WeatherDisplay:10.37,2013-08-24 07:23:00,
2013-08-24 02:24:00,80.0,73.6,29.65,ESE,112,0.0,0.0,81,0.00,CLR,,0.00,WeatherDisplay:10.37,2013-08-24 07:24:00,
2013-08-24 02:25:00,80.0,73.6,29.65,ESE,112,2.3,2.3,81,0.00,CLR,,0.00,WeatherDisplay:10.37,2013-08-24 07:25:00,
2013-08-24 02:29:00,80.0,73.6,29.65,ESE,112,0.0,0.0,81,0.00,CLR,,0.00,WeatherDisplay:10.37,2013-08-24 07:29:00,
2013-08-24 02:33:00,80.0,73.6,29.65,ESE,112,0.0,0.0,81,0.00,CLR,,0.00,WeatherDisplay:10.37,2013-08-24 07:33:00,
2013-08-24 02:34:00,80.0,73.6,29.65,ESE,112,0.0,0.0,81,0.00,CLR,,0.00,WeatherDisplay:10.37,2013-08-24 07:34:00,
2013-08-24 02:38:00,79.0,72.7,29.65,ESE,112,0.0,0.0,81,0.00,CLR,,0.00,WeatherDisplay:10.37,2013-08-24 07:38:00,
2013-08-24 02:39:00,79.0,72.7,29.65,SE,135,1.0,1.0,81,0.00,CLR,,0.00,WeatherDisplay:10.37,2013-08-24 07:39:00,
2013-08-24 02:44:00,79.0,72.7,29.65,SE,135,0.0,0.0,81,0.00,CLR,,0.00,WeatherDisplay:10.37,2013-08-24 07:44:00,
2013-08-24 02:45:00,79.0,72.7,29.65,SE,135,0.0,0.0,81,0.00,CLR,,0.00,WeatherDisplay:10.37,2013-08-24 07:45:00,
2013-08-24 02:49:00,79.0,72.7,29.65,SE,135,0.0,0.0,81,0.00,CLR,,0.00,WeatherDisplay:10.37,2013-08-24 07:49:00,
2013-08-24 02:50:00,79.0,72.7,29.65,SE,135,0.0,0.0,81,0.00,CLR,,0.00,WeatherDisplay:10.37,2013-08-24 07:50:00,
2013-08-24 02:54:00,79.0,73.0,29.65,SE,135,3.5,3.5,82,0.00,CLR,,0.00,WeatherDisplay:10.37,2013-08-24 07:54:00,
2013-08-24 02:55:00,79.0,73.0,29.65,SE,135,3.5,3.5,82,0.00,CLR,,0.00,WeatherDisplay:10.37,2013-08-24 07:55:00,
2013-08-24 02:59:00,79.0,73.0,29.65,East,90,3.5,3.5,82,0.00,CLR,,0.00,WeatherDisplay:10.37,2013-08-24 07:59:00,
2013-08-24 03:00:00,79.0,73.0,29.65,East,90,0.0,0.0,82,0.00,CLR,,0.00,WeatherDisplay:10.37,2013-08-24 08:00:00,
2013-08-24 03:05:00,79.0,73.0,29.65,East,90,1.2,1.2,82,0.00,CLR,,0.00,WeatherDisplay:10.37,2013-08-24 08:05:00,
2013-08-24 03:10:00,79.0,73.4,29.65,SE,135,3.5,3.5,83,0.00,CLR,,0.00,WeatherDisplay:10.37,2013-08-24 08:10:00,
2013-08-24 03:11:00,79.0,73.0,29.65,SE,135,4.6,4.6,82,0.00,CLR,,0.00,WeatherDisplay:10.37,2013-08-24 08:11:00,
2013-08-24 03:15:00,79.0,73.0,29.65,ESE,112,3.5,3.5,82,0.00,CLR,,0.00,WeatherDisplay:10.37,2013-08-24 08:15:00,
2013-08-24 03:16:00,79.0,73.0,29.65,ESE,112,3.5,3.5,82,0.00,CLR,,0.00,WeatherDisplay:10.37,2013-08-24 08:16:00,
2013-08-24 03:20:00,79.0,72.7,29.65,SE,135,3.5,3.5,81,0.00,CLR,,0.00,WeatherDisplay:10.37,2013-08-24 08:20:00,
2013-08-24 03:21:00,79.0,72.7,29.65,South,180,3.5,3.5,81,0.00,CLR,,0.00,WeatherDisplay:10.37,2013-08-24 08:21:00,
2013-08-24 03:25:00,79.0,72.7,29.65,SE,135,4.6,4.6,81,0.00,CLR,,0.00,WeatherDisplay:10.37,2013-08-24 08:25:00,
2013-08-24 03:26:00,79.0,72.7,29.65,SE,135,2.3,2.3,81,0.00,CLR,,0.00,WeatherDisplay:10.37,2013-08-24 08:26:00,
2013-08-24 03:30:00,79.0,72.7,29.65,SE,135,5.8,5.8,81,0.00,CLR,,0.00,WeatherDisplay:10.37,2013-08-24 08:30:00,
2013-08-24 03:31:00,79.0,72.7,29.65,SE,135,3.5,3.5,81,0.00,CLR,,0.00,WeatherDisplay:10.37,2013-08-24 08:31:00,
2013-08-24 03:36:00,79.0,72.7,29.65,SE,135,3.5,3.5,81,0.00,CLR,,0.00,WeatherDisplay:10.37,2013-08-24 08:36:00,
2013-08-24 03:37:00,79.0,72.3,29.65,SE,135,0.0,0.0,80,0.00,CLR,,0.00,WeatherDisplay:10.37,2013-08-24 08:37:00,
2013-08-24 03:41:00,79.0,72.7,29.65,SE,135,2.3,2.3,81,0.00,CLR,,0.00,WeatherDisplay:10.37,2013-08-24 08:41:00,
2013-08-24 03:42:00,79.0,72.7,29.65,SE,135,0.0,0.0,81,0.00,CLR,,0.00,WeatherDisplay:10.37,2013-08-24 08:42:00,
2013-08-24 03:46:00,79.0,72.7,29.65,ESE,112,3.5,3.5,81,0.00,CLR,,0.00,WeatherDisplay:10.37,2013-08-24 08:46:00,
2013-08-24 03:47:00,79.0,72.7,29.65,ESE,112,3.5,3.5,81,0.00,CLR,,0.00,WeatherDisplay:10.37,2013-08-24 08:47:00,
2013-08-24 03:51:00,79.0,72.7,29.65,SE,135,3.5,3.5,81,0.00,CLR,,0.00,WeatherDisplay:10.37,2013-08-24 08:51:00,
2013-08-24 03:52:00,79.0,72.7,29.65,SE,135,1.2,1.2,81,0.00,CLR,,0.00,WeatherDisplay:10.37,2013-08-24 08:52:00,
2013-08-24 03:56:00,79.0,72.7,29.65,ESE,112,3.0,3.0,81,0.00,CLR,,0.00,WeatherDisplay:10.37,2013-08-24 08:56:00,
2013-08-24 03:57:00,79.0,72.7,29.65,SSE,157,3.5,3.5,81,0.00,CLR,,0.00,WeatherDisplay:10.37,2013-08-24 08:57:00,
2013-08-24 03:58:00,79.0,72.3,29.65,SE,135,3.5,3.5,80,0.00,CLR,,0.00,WeatherDisplay:10.37,2013-08-24 08:58:00,
2013-08-24 04:01:00,79.0,72.7,29.65,NE,45,3.5,3.5,81,0.00,CLR,,0.00,WeatherDisplay:10.37,2013-08-24 09:01:00,
2013-08-24 04:02:00,79.0,72.7,29.65,South,180,2.3,2.3,81,0.00,CLR,,0.00,WeatherDisplay:10.37,2013-08-24 09:02:00,
2013-08-24 04:03:00,79.0,72.7,29.65,South,180,3.5,3.5,81,0.00,CLR,,0.00,WeatherDisplay:10.37,2013-08-24 09:03:00,
2013-08-24 04:06:00,78.0,71.7,29.65,South,180,0.0,0.0,81,0.00,CLR,,0.00,WeatherDisplay:10.37,2013-08-24 09:06:00,
2013-08-24 04:07:00,79.0,72.3,29.65,South,180,0.0,0.0,80,0.00,CLR,,0.00,WeatherDisplay:10.37,2013-08-24 09:07:00,
2013-08-24 04:08:00,79.0,72.3,29.65,South,180,0.0,0.0,80,0.00,CLR,,0.00,WeatherDisplay:10.37,2013-08-24 09:08:00,
2013-08-24 04:09:00,78.0,71.7,29.65,South,180,2.3,2.3,81,0.00,CLR,,0.00,WeatherDisplay:10.37,2013-08-24 09:09:00,
2013-08-24 04:11:00,78.0,71.7,29.65,South,180,2.3,2.3,81,0.00,CLR,,0.00,WeatherDisplay:10.37,2013-08-24 09:11:00,
2013-08-24 04:13:00,78.0,71.7,29.65,South,180,0.0,0.0,81,0.00,CLR,,0.00,WeatherDisplay:10.37,2013-08-24 09:13:00,
2013-08-24 04:14:00,78.0,71.7,29.65,South,180,0.0,0.0,81,0.00,CLR,,0.00,WeatherDisplay:10.37,2013-08-24 09:14:00,
2013-08-24 04:16:00,78.0,72.1,29.65,South,180,0.0,0.0,82,0.00,CLR,,0.00,WeatherDisplay:10.37,2013-08-24 09:16:00,
2013-08-24 04:18:00,78.0,72.1,29.65,ESE,112,3.5,3.5,82,0.00,CLR,,0.00,WeatherDisplay:10.37,2013-08-24 09:18:00,
2013-08-24 04:19:00,78.0,72.4,29.65,ESE,112,0.0,0.0,83,0.00,CLR,,0.00,WeatherDisplay:10.37,2013-08-24 09:19:00,
2013-08-24 04:21:00,78.0,72.4,29.65,ESE,112,0.0,0.3,83,0.00,CLR,,0.00,WeatherDisplay:10.37,2013-08-24 09:21:00,
2013-08-24 04:23:00,78.0,72.4,29.65,ESE,112,0.0,0.0,83,0.00,CLR,,0.00,WeatherDisplay:10.37,2013-08-24 09:23:00,
2013-08-24 04:24:00,78.0,72.4,29.65,ESE,112,0.0,0.0,83,0.00,CLR,,0.00,WeatherDisplay:10.37,2013-08-24 09:24:00,
2013-08-24 04:26:00,78.0,72.4,29.65,ESE,112,3.5,3.5,83,0.00,CLR,,0.00,WeatherDisplay:10.37,2013-08-24 09:26:00,
2013-08-24 04:28:00,78.0,72.4,29.65,SE,135,6.9,6.9,83,0.00,CLR,,0.00,WeatherDisplay:10.37,2013-08-24 09:28:00,
2013-08-24 04:29:00,78.0,72.4,29.65,SE,135,4.6,4.6,83,0.00,CLR,,0.00,WeatherDisplay:10.37,2013-08-24 09:29:00,
2013-08-24 04:32:00,78.0,72.4,29.65,SE,135,3.5,3.5,83,0.00,CLR,,0.00,WeatherDisplay:10.37,2013-08-24 09:32:00,
2013-08-24 04:33:00,78.0,72.1,29.65,SE,135,4.0,4.0,82,0.00,CLR,,0.00,WeatherDisplay:10.37,2013-08-24 09:33:00,
2013-08-24 04:34:00,78.0,72.1,29.65,SSE,157,4.6,4.6,82,0.00,CLR,,0.00,WeatherDisplay:10.37,2013-08-24 09:34:00,
2013-08-24 04:37:00,78.0,72.4,29.65,SE,135,3.5,3.5,83,0.00,CLR,,0.00,WeatherDisplay:10.37,2013-08-24 09:37:00,
2013-08-24 04:38:00,78.0,72.4,29.65,SE,135,3.0,3.0,83,0.00,CLR,,0.00,WeatherDisplay:10.37,2013-08-24 09:38:00,
2013-08-24 04:39:00,78.0,72.4,29.65,ESE,112,3.5,3.5,83,0.00,CLR,,0.00,WeatherDisplay:10.37,2013-08-24 09:39:00,
2013-08-24 04:42:00,78.0,72.8,29.65,ESE,112,3.5,3.5,84,0.00,CLR,,0.00,WeatherDisplay:10.37,2013-08-24 09:42:00,
2013-08-24 04:43:00,78.0,72.8,29.65,SE,135,4.6,4.6,84,0.00,CLR,,0.00,WeatherDisplay:10.37,2013-08-24 09:43:00,
2013-08-24 04:44:00,78.0,72.8,29.65,SE,135,4.0,4.0,84,0.00,CLR,,0.00,WeatherDisplay:10.37,2013-08-24 09:44:00,
2013-08-24 04:47:00,78.0,72.8,29.65,SE,135,3.5,3.5,84,0.00,CLR,,0.00,WeatherDisplay:10.37,2013-08-24 09:47:00,
2013-08-24 04:48:00,77.0,71.8,29.65,SE,135,5.8,5.8,84,0.00,CLR,,0.00,WeatherDisplay:10.37,2013-08-24 09:48:00,
2013-08-24 04:49:00,77.0,71.8,29.65,SE,135,5.8,5.8,84,0.00,CLR,,0.00,WeatherDisplay:10.37,2013-08-24 09:49:00,
2013-08-24 04:50:00,77.0,71.8,29.65,SE,135,4.6,4.6,84,0.00,CLR,,0.00,WeatherDisplay:10.37,2013-08-24 09:50:00,
2013-08-24 04:52:00,77.0,72.1,29.65,SE,135,3.5,3.5,85,0.00,CLR,,0.00,WeatherDisplay:10.37,2013-08-24 09:52:00,
2013-08-24 04:54:00,77.0,72.1,29.65,SE,135,3.5,3.5,85,0.00,CLR,,0.00,WeatherDisplay:10.37,2013-08-24 09:54:00,
2013-08-24 04:55:00,77.0,72.1,29.65,SE,135,3.5,3.5,85,0.00,CLR,,0.00,WeatherDisplay:10.37,2013-08-24 09:55:00,
2013-08-24 04:57:00,77.0,71.8,29.65,ESE,112,6.0,6.0,84,0.00,CLR,,0.00,WeatherDisplay:10.37,2013-08-24 09:57:00,
2013-08-24 04:59:00,77.0,72.1,29.65,SE,135,3.5,3.5,85,0.00,CLR,,0.00,WeatherDisplay:10.37,2013-08-24 09:59:00,
2013-08-24 05:00:00,77.0,72.1,29.65,SE,135,5.0,5.0,85,0.00,CLR,,0.00,WeatherDisplay:10.37,2013-08-24 10:00:00,
2013-08-24 05:01:00,77.0,72.1,29.65,SE,135,4.6,4.6,85,0.00,CLR,,0.00,WeatherDisplay:10.37,2013-08-24 10:01:00,
2013-08-24 05:02:00,77.0,72.1,29.65,SE,135,3.5,3.5,85,0.00,CLR,,0.00,WeatherDisplay:10.37,2013-08-24 10:02:00,
2013-08-24 05:04:00,77.0,72.5,29.65,SE,135,4.6,4.6,86,0.00,CLR,,0.00,WeatherDisplay:10.37,2013-08-24 10:04:00,
2013-08-24 05:05:00,77.0,72.5,29.65,SE,135,3.5,3.5,86,0.00,CLR,,0.00,WeatherDisplay:10.37,2013-08-24 10:05:00,
2013-08-24 05:06:00,77.0,72.5,29.65,SE,135,4.0,4.0,86,0.00,CLR,,0.00,WeatherDisplay:10.37,2013-08-24 10:06:00,
2013-08-24 05:07:00,77.0,72.1,29.65,SE,135,3.5,3.5,85,0.00,CLR,,0.00,WeatherDisplay:10.37,2013-08-24 10:07:00,
2013-08-24 05:10:00,77.0,72.8,29.65,SE,135,3.5,3.5,87,0.00,CLR,,0.00,WeatherDisplay:10.37,2013-08-24 10:10:00,
2013-08-24 05:11:00,77.0,72.8,29.65,ESE,112,3.5,3.5,87,0.00,CLR,,0.00,WeatherDisplay:10.37,2013-08-24 10:11:00,
2013-08-24 05:13:00,77.0,72.8,29.65,ESE,112,4.6,4.6,87,0.00,CLR,,0.00,WeatherDisplay:10.37,2013-08-24 10:13:00,
2013-08-24 05:15:00,77.0,72.8,29.65,SE,135,3.5,3.5,87,0.00,CLR,,0.00,WeatherDisplay:10.37,2013-08-24 10:15:00,
2013-08-24 05:16:00,77.0,72.8,29.65,SE,135,4.0,4.0,87,0.00,CLR,,0.00,WeatherDisplay:10.37,2013-08-24 10:16:00,
2013-08-24 05:17:00,77.0,72.8,29.65,SE,135,3.5,3.5,87,0.00,CLR,,0.00,WeatherDisplay:10.37,2013-08-24 10:17:00,
2013-08-24 05:18:00,77.0,72.8,29.65,SE,135,3.5,3.5,87,0.00,CLR,,0.00,WeatherDisplay:10.37,2013-08-24 10:18:00,
2013-08-24 05:20:00,76.0,72.2,29.65,SE,135,3.5,3.5,88,0.00,CLR,,0.00,WeatherDisplay:10.37,2013-08-24 10:20:00,
2013-08-24 05:21:00,76.0,72.2,29.65,SE,135,3.5,3.5,88,0.00,CLR,,0.00,WeatherDisplay:10.37,2013-08-24 10:21:00,
2013-08-24 05:22:00,76.0,72.2,29.65,SE,135,3.5,3.5,88,0.00,CLR,,0.00,WeatherDisplay:10.37,2013-08-24 10:22:00,
2013-08-24 05:23:00,76.0,72.2,29.65,SE,135,3.5,3.5,88,0.00,CLR,,0.00,WeatherDisplay:10.37,2013-08-24 10:23:00,
2013-08-24 05:25:00,76.0,72.2,29.65,SE,135,3.5,3.5,88,0.00,CLR,,0.00,WeatherDisplay:10.37,2013-08-24 10:25:00,
2013-08-24 05:27:00,76.0,72.2,29.65,SE,135,3.5,3.5,88,0.00,CLR,,0.00,WeatherDisplay:10.37,2013-08-24 10:27:00,
2013-08-24 05:28:00,76.0,72.2,29.65,SE,135,3.5,3.5,88,0.00,CLR,,0.00,WeatherDisplay:10.37,2013-08-24 10:28:00,
2013-08-24 05:30:00,76.0,72.5,29.65,SE,135,3.5,3.5,89,0.00,CLR,,0.00,WeatherDisplay:10.37,2013-08-24 10:30:00,
2013-08-24 05:31:00,76.0,72.5,29.65,SE,135,3.5,3.5,89,0.00,CLR,,0.00,WeatherDisplay:10.37,2013-08-24 10:31:00,
2013-08-24 05:32:00,76.0,72.2,29.65,SE,135,3.5,3.5,88,0.00,CLR,,0.00,WeatherDisplay:10.37,2013-08-24 10:32:00,
2013-08-24 05:33:00,76.0,72.2,29.65,SE,135,3.5,3.5,88,0.00,CLR,,0.00,WeatherDisplay:10.37,2013-08-24 10:33:00,
2013-08-24 05:35:00,76.0,72.5,29.65,SSE,157,3.5,3.5,89,0.00,CLR,,0.00,WeatherDisplay:10.37,2013-08-24 10:35:00,
2013-08-24 05:36:00,76.0,72.5,29.65,SSE,157,3.5,3.5,89,0.00,CLR,,0.00,WeatherDisplay:10.37,2013-08-24 10:36:00,
2013-08-24 05:37:00,76.0,72.2,29.65,SE,135,3.5,3.5,88,0.00,CLR,,0.00,WeatherDisplay:10.37,2013-08-24 10:37:00,
2013-08-24 05:38:00,76.0,72.2,29.65,SE,135,3.5,3.5,88,0.00,CLR,,0.00,WeatherDisplay:10.37,2013-08-24 10:38:00,
2013-08-24 05:40:00,76.0,72.5,29.65,SE,135,3.5,3.5,89,0.00,CLR,,0.00,WeatherDisplay:10.37,2013-08-24 10:40:00,
2013-08-24 05:41:00,76.0,72.5,29.65,SE,135,3.5,3.5,89,0.00,CLR,,0.00,WeatherDisplay:10.37,2013-08-24 10:41:00,
2013-08-24 05:43:00,76.0,72.5,29.65,SE,135,0.0,0.0,89,0.00,CLR,,0.00,WeatherDisplay:10.37,2013-08-24 10:43:00,
2013-08-24 05:46:00,76.0,72.9,29.65,SE,135,2.3,2.3,90,0.00,CLR,,0.00,WeatherDisplay:10.37,2013-08-24 10:46:00,
2013-08-24 05:48:00,76.0,72.9,29.65,SE,135,0.0,0.0,90,0.00,CLR,,0.00,WeatherDisplay:10.37,2013-08-24 10:48:00,
2013-08-24 05:51:00,76.0,72.9,29.65,SE,135,3.0,3.0,90,0.00,CLR,,0.00,WeatherDisplay:10.37,2013-08-24 10:51:00,
2013-08-24 05:53:00,75.0,71.5,29.65,SE,135,2.3,2.3,89,0.00,CLR,,0.00,WeatherDisplay:10.37,2013-08-24 10:53:00,
2013-08-24 05:54:00,75.0,71.5,29.65,SE,135,1.2,0.0,89,0.00,CLR,,0.00,WeatherDisplay:10.37,2013-08-24 10:54:00,
2013-08-24 05:56:00,75.0,71.5,29.65,SE,135,0.0,0.0,89,0.00,CLR,,0.00,WeatherDisplay:10.37,2013-08-24 10:56:00,
2013-08-24 05:58:00,75.0,71.5,29.65,SE,135,0.0,0.0,89,0.00,CLR,,0.00,WeatherDisplay:10.37,2013-08-24 10:58:00,
2013-08-24 05:59:00,75.0,71.5,29.65,SE,135,0.0,0.0,89,0.00,CLR,,0.00,WeatherDisplay:10.37,2013-08-24 10:59:00,
2013-08-24 06:01:00,75.0,71.9,29.65,SE,135,0.0,0.0,90,0.00,CLR,,0.00,WeatherDisplay:10.37,2013-08-24 11:01:00,
2013-08-24 06:02:00,75.0,71.9,29.65,SE,135,0.0,0.0,90,0.00,CLR,,0.00,WeatherDisplay:10.37,2013-08-24 11:02:00,
2013-08-24 06:03:00,75.0,72.2,29.65,SE,135,0.0,0.0,91,0.00,CLR,,0.00,WeatherDisplay:10.37,2013-08-24 11:03:00,
2013-08-24 06:04:00,75.0,72.2,29.65,SE,135,0.0,0.0,91,0.00,CLR,,0.00,WeatherDisplay:10.37,2013-08-24 11:04:00,
2013-08-24 06:05:00,75.0,72.2,29.65,SE,135,0.0,0.0,91,0.00,CLR,,0.00,WeatherDisplay:10.37,2013-08-24 11:05:00,
2013-08-24 06:06:00,75.0,72.2,29.65,SE,135,0.0,0.0,91,0.00,CLR,,0.00,WeatherDisplay:10.37,2013-08-24 11:06:00,
2013-08-24 06:07:00,75.0,72.2,29.65,SE,135,0.0,0.0,91,0.00,CLR,,0.00,WeatherDisplay:10.37,2013-08-24 11:07:00,
2013-08-24 06:09:00,75.0,72.5,29.65,SE,135,0.0,0.0,92,0.00,CLR,,0.00,WeatherDisplay:10.37,2013-08-24 11:09:00,
2013-08-24 06:10:00,75.0,72.5,29.65,SE,135,1.2,0.0,92,0.00,CLR,,0.00,WeatherDisplay:10.37,2013-08-24 11:10:00,
2013-08-24 06:11:00,75.0,72.5,29.65,SE,135,0.0,1.3,92,0.00,CLR,,0.00,WeatherDisplay:10.37,2013-08-24 11:11:00,
2013-08-24 06:13:00,75.0,72.5,29.65,SE,135,1.2,0.0,92,0.00,CLR,,0.00,WeatherDisplay:10.37,2013-08-24 11:13:00,
2013-08-24 06:14:00,75.0,72.5,29.65,SE,135,0.0,0.0,92,0.00,CLR,,0.00,WeatherDisplay:10.37,2013-08-24 11:14:00,
2013-08-24 06:15:00,75.0,72.5,29.65,SE,135,3.0,3.0,92,0.00,CLR,,0.00,WeatherDisplay:10.37,2013-08-24 11:15:00,
2013-08-24 06:16:00,75.0,72.5,29.65,SE,135,3.5,3.5,92,0.00,CLR,,0.00,WeatherDisplay:10.37,2013-08-24 11:16:00,
2013-08-24 06:18:00,75.0,72.5,29.65,SE,135,2.3,0.0,92,0.00,CLR,,0.00,WeatherDisplay:10.37,2013-08-24 11:18:00,
2013-08-24 06:19:00,75.0,72.5,29.65,SE,135,0.0,0.0,92,0.00,CLR,,0.00,WeatherDisplay:10.37,2013-08-24 11:19:00,
2013-08-24 06:20:00,74.0,71.8,29.65,SE,135,0.0,0.0,93,0.00,CLR,,0.00,WeatherDisplay:10.37,2013-08-24 11:20:00,
2013-08-24 06:22:00,74.0,71.8,29.65,SE,135,0.0,0.0,93,0.00,CLR,,0.00,WeatherDisplay:10.37,2013-08-24 11:22:00,
2013-08-24 06:23:00,74.0,71.8,29.65,SE,135,0.0,0.0,93,0.00,CLR,,0.00,WeatherDisplay:10.37,2013-08-24 11:23:00,
2013-08-24 06:24:00,74.0,71.8,29.65,SE,135,0.0,0.0,93,0.00,CLR,,0.00,WeatherDisplay:10.37,2013-08-24 11:24:00,
2013-08-24 06:26:00,74.0,71.8,29.65,SE,135,0.0,0.0,93,0.00,CLR,,0.00,WeatherDisplay:10.37,2013-08-24 11:26:00,
2013-08-24 06:27:00,74.0,71.8,29.65,SE,135,0.0,0.0,93,0.00,CLR,,0.00,WeatherDisplay:10.37,2013-08-24 11:27:00,
2013-08-24 06:28:00,74.0,72.2,29.65,SE,135,0.0,0.0,94,0.00,CLR,,0.00,WeatherDisplay:10.37,2013-08-24 11:28:00,
2013-08-24 06:29:00,74.0,72.2,29.65,SE,135,0.0,0.0,94,0.00,CLR,,0.00,WeatherDisplay:10.37,2013-08-24 11:29:00,
2013-08-24 06:31:00,74.0,72.2,29.65,SE,135,0.0,0.0,94,0.00,CLR,,0.00,WeatherDisplay:10.37,2013-08-24 11:31:00,
2013-08-24 06:32:00,74.0,72.2,29.65,SE,135,0.0,0.0,94,0.00,CLR,,0.00,WeatherDisplay:10.37,2013-08-24 11:32:00,
2013-08-24 06:33:00,74.0,72.2,29.65,SE,135,0.0,0.0,94,0.00,CLR,,0.00,WeatherDisplay:10.37,2013-08-24 11:33:00,
2013-08-24 06:34:00,74.0,72.2,29.65,SE,135,0.0,0.0,94,0.00,CLR,,0.00,WeatherDisplay:10.37,2013-08-24 11:34:00,
2013-08-24 06:36:00,74.0,72.5,29.65,SE,135,0.0,0.0,95,0.00,CLR,,0.00,WeatherDisplay:10.37,2013-08-24 11:36:00,
2013-08-24 06:37:00,74.0,72.2,29.65,SE,135,0.0,0.0,94,0.00,CLR,,0.00,WeatherDisplay:10.37,2013-08-24 11:37:00,
2013-08-24 06:39:00,74.0,72.5,29.65,SE,135,0.0,0.0,95,0.00,CLR,,0.00,WeatherDisplay:10.37,2013-08-24 11:39:00,
2013-08-24 06:40:00,74.0,72.8,29.65,SE,135,0.0,0.0,96,0.00,CLR,,0.00,WeatherDisplay:10.37,2013-08-24 11:40:00,
2013-08-24 06:41:00,74.0,72.8,29.65,SE,135,0.0,0.0,96,0.00,CLR,,0.00,WeatherDisplay:10.37,2013-08-24 11:41:00,
2013-08-24 06:42:00,74.0,72.8,29.65,SE,135,0.0,0.0,96,0.00,CLR,,0.00,WeatherDisplay:10.37,2013-08-24 11:42:00,
2013-08-24 06:44:00,74.0,72.8,29.65,SE,135,0.0,0.0,96,0.00,CLR,,0.00,WeatherDisplay:10.37,2013-08-24 11:44:00,
2013-08-24 06:46:00,74.0,72.8,29.65,SE,135,0.0,0.0,96,0.00,CLR,,0.00,WeatherDisplay:10.37,2013-08-24 11:46:00,
2013-08-24 06:47:00,74.0,72.5,29.65,SE,135,0.0,0.0,95,0.00,CLR,,0.00,WeatherDisplay:10.37,2013-08-24 11:47:00,
2013-08-24 06:49:00,74.0,72.8,29.65,SE,135,0.0,0.0,96,0.00,CLR,,0.00,WeatherDisplay:10.37,2013-08-24 11:49:00,
2013-08-24 06:50:00,74.0,72.8,29.65,SE,135,0.0,0.0,96,0.00,CLR,,0.00,WeatherDisplay:10.37,2013-08-24 11:50:00,
2013-08-24 06:51:00,74.0,72.8,29.65,SE,135,0.0,0.0,96,0.00,CLR,,0.00,WeatherDisplay:10.37,2013-08-24 11:51:00,
2013-08-24 06:52:00,74.0,72.8,29.65,SE,135,0.0,0.0,96,0.00,CLR,,0.00,WeatherDisplay:10.37,2013-08-24 11:52:00,
2013-08-24 06:54:00,74.0,72.8,29.65,SE,135,0.0,0.0,96,0.00,CLR,,0.00,WeatherDisplay:10.37,2013-08-24 11:54:00,
2013-08-24 06:55:00,74.0,72.8,29.65,SE,135,0.0,0.0,96,0.00,CLR,,0.00,WeatherDisplay:10.37,2013-08-24 11:55:00,
2013-08-24 06:56:00,74.0,73.1,29.65,SE,135,0.0,0.0,97,0.00,CLR,,0.00,WeatherDisplay:10.37,2013-08-24 11:56:00,
2013-08-24 06:57:00,74.0,73.1,29.65,SE,135,0.0,0.0,97,0.00,CLR,,0.00,WeatherDisplay:10.37,2013-08-24 11:57:00,
2013-08-24 06:59:00,74.0,73.1,29.65,SE,135,0.0,0.0,97,0.00,CLR,,0.00,WeatherDisplay:10.37,2013-08-24 11:59:00,
2013-08-24 07:00:00,74.0,73.1,29.65,SE,135,0.0,0.0,97,0.00,CLR,,0.00,WeatherDisplay:10.37,2013-08-24 12:00:00,
2013-08-24 07:01:00,74.0,73.1,29.65,SE,135,0.0,0.0,97,0.00,CLR,,0.00,WeatherDisplay:10.37,2013-08-24 12:01:00,
2013-08-24 07:02:00,74.0,73.1,29.65,SE,135,0.0,0.0,97,0.00,CLR,,0.00,WeatherDisplay:10.37,2013-08-24 12:02:00,
2013-08-24 07:03:00,74.0,73.1,29.65,SE,135,0.0,0.0,97,0.00,CLR,,0.00,WeatherDisplay:10.37,2013-08-24 12:03:00,
2013-08-24 07:04:00,74.0,73.4,29.65,SE,135,0.0,0.0,98,0.00,CLR,,0.00,WeatherDisplay:10.37,2013-08-24 12:04:00,
2013-08-24 07:05:00,74.0,73.4,29.65,SE,135,0.0,0.0,98,0.00,CLR,,0.00,WeatherDisplay:10.37,2013-08-24 12:05:00,
2013-08-24 07:06:00,74.0,73.1,29.65,SE,135,0.0,0.0,97,0.00,CLR,,0.00,WeatherDisplay:10.37,2013-08-24 12:06:00,
2013-08-24 07:07:00,74.0,73.1,29.65,SE,135,0.0,0.0,97,0.00,CLR,,0.00,WeatherDisplay:10.37,2013-08-24 12:07:00,
2013-08-24 07:08:00,74.0,73.1,29.65,SE,135,0.0,0.0,97,0.00,CLR,,0.00,WeatherDisplay:10.37,2013-08-24 12:08:00,
2013-08-24 07:09:00,74.0,73.1,29.65,SE,135,0.0,0.0,97,0.00,CLR,,0.00,WeatherDisplay:10.37,2013-08-24 12:09:00,
2013-08-24 07:10:00,74.0,73.1,29.65,SE,135,0.0,0.0,97,0.00,CLR,,0.00,WeatherDisplay:10.37,2013-08-24 12:10:00,
2013-08-24 07:12:00,74.0,73.1,29.65,SE,135,0.0,0.0,97,0.00,CLR,,0.00,WeatherDisplay:10.37,2013-08-24 12:12:00,
2013-08-24 07:13:00,74.0,73.1,29.65,SE,135,0.0,0.0,97,0.00,CLR,,0.00,WeatherDisplay:10.37,2013-08-24 12:13:00,
2013-08-24 07:14:00,74.0,73.1,29.65,SE,135,0.0,0.0,97,0.00,CLR,,0.00,WeatherDisplay:10.37,2013-08-24 12:14:00,
2013-08-24 07:15:00,74.0,73.1,29.65,SE,135,0.0,0.0,97,0.00,CLR,,0.00,WeatherDisplay:10.37,2013-08-24 12:15:00,
2013-08-24 07:17:00,74.0,72.8,29.65,SE,135,0.0,0.0,96,0.00,CLR,,0.00,WeatherDisplay:10.37,2013-08-24 12:17:00,
2013-08-24 07:18:00,74.0,73.1,29.65,SE,135,0.0,0.0,97,0.00,CLR,,0.00,WeatherDisplay:10.37,2013-08-24 12:18:00,
2013-08-24 07:20:00,74.0,73.1,29.65,SE,135,0.0,0.0,97,0.00,CLR,,0.00,WeatherDisplay:10.37,2013-08-24 12:20:00,
2013-08-24 07:21:00,74.0,73.1,29.65,SE,135,0.0,0.0,97,0.00,CLR,,0.00,WeatherDisplay:10.37,2013-08-24 12:21:00,
2013-08-24 07:22:00,74.0,73.1,29.65,SE,135,0.0,0.0,97,0.00,CLR,,0.00,WeatherDisplay:10.37,2013-08-24 12:22:00,
2013-08-24 07:23:00,74.0,73.1,29.65,SE,135,0.0,0.0,97,0.00,CLR,,0.00,WeatherDisplay:10.37,2013-08-24 12:23:00,
2013-08-24 07:25:00,74.0,73.7,29.65,SE,135,0.0,0.0,99,0.00,CLR,,0.00,WeatherDisplay:10.37,2013-08-24 12:25:00,
2013-08-24 07:26:00,74.0,73.7,29.65,SE,135,0.0,0.0,99,0.00,CLR,,0.00,WeatherDisplay:10.37,2013-08-24 12:26:00,
2013-08-24 07:27:00,75.0,74.7,29.65,SE,135,0.0,0.0,99,0.00,CLR,,0.00,WeatherDisplay:10.37,2013-08-24 12:27:00,
2013-08-24 07:28:00,75.0,74.7,29.65,SE,135,0.0,0.0,99,0.00,CLR,,0.00,WeatherDisplay:10.37,2013-08-24 12:28:00,
2013-08-24 07:30:00,75.0,74.7,29.65,SE,135,0.0,0.0,99,0.00,CLR,,0.00,WeatherDisplay:10.37,2013-08-24 12:30:00,
2013-08-24 07:31:00,75.0,74.7,29.65,SE,135,0.0,0.0,99,0.00,CLR,,0.00,WeatherDisplay:10.37,2013-08-24 12:31:00,
2013-08-24 07:33:00,75.0,74.7,29.65,SE,135,0.0,0.0,99,0.00,CLR,,0.00,WeatherDisplay:10.37,2013-08-24 12:33:00,
2013-08-24 07:34:00,75.0,74.7,29.65,SE,135,0.0,0.0,99,0.00,CLR,,0.00,WeatherDisplay:10.37,2013-08-24 12:34:00,
2013-08-24 07:35:00,75.0,74.7,29.65,SE,135,0.0,0.0,99,0.00,CLR,,0.00,WeatherDisplay:10.37,2013-08-24 12:35:00,
2013-08-24 07:37:00,75.0,74.7,29.65,SE,135,0.0,0.0,99,0.00,CLR,,0.00,WeatherDisplay:10.37,2013-08-24 12:37:00,
2013-08-24 07:38:00,75.0,74.7,29.65,SE,135,0.0,0.0,99,0.00,CLR,,0.00,WeatherDisplay:10.37,2013-08-24 12:38:00,
2013-08-24 07:39:00,75.0,74.7,29.65,SE,135,0.0,0.0,99,0.00,CLR,,0.00,WeatherDisplay:10.37,2013-08-24 12:39:00,
2013-08-24 07:40:00,75.0,75.0,29.65,SE,135,0.0,0.0,100,0.00,CLR,,0.00,WeatherDisplay:10.37,2013-08-24 12:40:00,
2013-08-24 07:42:00,75.0,75.0,29.65,SE,135,0.0,0.0,100,0.00,CLR,,0.00,WeatherDisplay:10.37,2013-08-24 12:42:00,
2013-08-24 07:43:00,75.0,74.7,29.65,SE,135,0.0,0.0,99,0.00,CLR,,0.00,WeatherDisplay:10.37,2013-08-24 12:43:00,
2013-08-24 07:44:00,75.0,74.7,29.65,SE,135,0.0,0.0,99,0.00,CLR,,0.00,WeatherDisplay:10.37,2013-08-24 12:44:00,
2013-08-24 07:45:00,75.0,74.7,29.65,SE,135,0.0,0.0,99,0.00,CLR,,0.00,WeatherDisplay:10.37,2013-08-24 12:45:00,
2013-08-24 07:47:00,76.0,76.0,29.65,SE,135,0.0,0.0,100,0.00,CLR,,0.00,WeatherDisplay:10.37,2013-08-24 12:47:00,
2013-08-24 07:48:00,76.0,76.0,29.65,SE,135,0.0,0.0,100,0.00,CLR,,0.00,WeatherDisplay:10.37,2013-08-24 12:48:00,
2013-08-24 07:49:00,76.0,76.0,29.65,SE,135,0.0,0.1,100,0.00,CLR,,0.00,WeatherDisplay:10.37,2013-08-24 12:49:00,
2013-08-24 07:51:00,76.0,76.0,29.65,SE,135,3.5,3.5,100,0.00,CLR,,0.00,WeatherDisplay:10.37,2013-08-24 12:51:00,
2013-08-24 07:52:00,76.0,76.0,29.65,SSE,157,3.5,3.5,100,0.00,CLR,,0.00,WeatherDisplay:10.37,2013-08-24 12:52:00,
2013-08-24 07:54:00,76.0,76.0,29.65,SSE,157,0.0,0.0,100,0.00,CLR,,0.00,WeatherDisplay:10.37,2013-08-24 12:54:00,
2013-08-24 07:56:00,76.0,75.7,29.65,ESE,112,3.5,3.5,99,0.00,CLR,,0.00,WeatherDisplay:10.37,2013-08-24 12:56:00,
2013-08-24 07:57:00,76.0,75.7,29.65,ESE,112,0.0,0.0,99,0.00,CLR,,0.00,WeatherDisplay:10.37,2013-08-24 12:57:00,
2013-08-24 07:59:00,77.0,76.4,29.65,ESE,112,0.0,0.0,98,0.00,CLR,,0.00,WeatherDisplay:10.37,2013-08-24 12:59:00,
2013-08-24 08:00:00,77.0,76.4,29.65,SE,135,2.0,2.0,98,0.00,CLR,,0.00,WeatherDisplay:10.37,2013-08-24 13:00:00,
2013-08-24 08:01:00,77.0,76.4,29.65,SE,135,4.6,4.6,98,0.00,CLR,,0.00,WeatherDisplay:10.37,2013-08-24 13:01:00,
2013-08-24 08:02:00,77.0,76.4,29.65,SE,135,1.2,0.0,98,0.00,CLR,,0.00,WeatherDisplay:10.37,2013-08-24 13:02:00,
2013-08-24 08:04:00,77.0,76.1,29.65,ESE,112,2.3,0.0,97,0.00,CLR,,0.00,WeatherDisplay:10.37,2013-08-24 13:04:00,
2013-08-24 08:05:00,77.0,76.1,29.65,ESE,112,0.0,0.0,97,0.00,CLR,,0.00,WeatherDisplay:10.37,2013-08-24 13:05:00,
2013-08-24 08:06:00,77.0,76.1,29.65,ESE,112,0.0,0.0,97,0.00,CLR,,0.00,WeatherDisplay:10.37,2013-08-24 13:06:00,
2013-08-24 08:07:00,78.0,76.8,29.65,ESE,112,0.0,0.0,96,0.00,CLR,,0.00,WeatherDisplay:10.37,2013-08-24 13:07:00,
2013-08-24 08:09:00,78.0,76.8,29.65,SSE,157,1.2,1.2,96,0.00,CLR,,0.00,WeatherDisplay:10.37,2013-08-24 13:09:00,
2013-08-24 08:10:00,78.0,76.8,29.65,SE,135,3.0,3.0,96,0.00,CLR,,0.00,WeatherDisplay:10.37,2013-08-24 13:10:00,
2013-08-24 08:11:00,78.0,77.1,29.65,South,180,3.5,3.5,97,0.00,CLR,,0.00,WeatherDisplay:10.37,2013-08-24 13:11:00,
2013-08-24 08:12:00,78.0,76.5,29.65,SE,135,5.0,5.0,95,0.00,CLR,,0.00,WeatherDisplay:10.37,2013-08-24 13:12:00,
2013-08-24 08:17:00,79.0,76.8,29.65,SE,135,3.0,3.0,93,0.00,CLR,,0.00,WeatherDisplay:10.37,2013-08-24 13:17:00,
2013-08-24 08:18:00,79.0,76.8,29.65,SE,135,2.3,2.3,93,0.00,CLR,,0.00,WeatherDisplay:10.37,2013-08-24 13:18:00,
2013-08-24 08:22:00,79.0,76.8,29.65,SE,135,4.6,4.6,93,0.00,CLR,,0.00,WeatherDisplay:10.37,2013-08-24 13:22:00,
2013-08-24 08:23:00,79.0,76.8,29.65,East,90,4.6,4.6,93,0.00,CLR,,0.00,WeatherDisplay:10.37,2013-08-24 13:23:00,
2013-08-24 08:27:00,79.0,75.8,29.65,SE,135,3.5,3.5,90,0.00,CLR,,0.00,WeatherDisplay:10.37,2013-08-24 13:27:00,
2013-08-24 08:28:00,79.0,76.1,29.65,SSE,157,6.0,6.0,91,0.00,CLR,,0.00,WeatherDisplay:10.37,2013-08-24 13:28:00,
2013-08-24 08:33:00,79.0,75.8,29.65,SE,135,3.5,3.5,90,0.00,CLR,,0.00,WeatherDisplay:10.37,2013-08-24 13:33:00,
2013-08-24 08:34:00,79.0,75.8,29.65,NE,45,6.9,6.9,90,0.00,CLR,,0.00,WeatherDisplay:10.37,2013-08-24 13:34:00,
2013-08-24 08:38:00,80.0,76.1,29.65,ENE,67,4.6,4.6,88,0.00,CLR,,0.00,WeatherDisplay:10.37,2013-08-24 13:38:00,
2013-08-24 08:39:00,79.0,75.1,29.65,East,90,4.6,4.6,88,0.00,CLR,,0.00,WeatherDisplay:10.37,2013-08-24 13:39:00,
2013-08-24 08:43:00,79.0,75.1,29.65,East,90,8.1,8.1,88,0.00,CLR,,0.00,WeatherDisplay:10.37,2013-08-24 13:43:00,
2013-08-24 08:44:00,80.0,76.1,29.65,ESE,112,8.1,8.1,88,0.00,CLR,,0.00,WeatherDisplay:10.37,2013-08-24 13:44:00,
2013-08-24 08:48:00,80.0,75.8,29.65,ENE,67,4.6,4.6,87,0.00,CLR,,0.00,WeatherDisplay:10.37,2013-08-24 13:48:00,
2013-08-24 08:49:00,80.0,76.1,29.65,North,360,3.5,3.5,88,0.00,CLR,,0.00,WeatherDisplay:10.37,2013-08-24 13:49:00,
2013-08-24 08:53:00,80.0,75.8,29.65,SE,135,4.0,4.0,87,0.00,CLR,,0.00,WeatherDisplay:10.37,2013-08-24 13:53:00,
2013-08-24 08:54:00,80.0,75.8,29.65,South,180,3.5,3.5,87,0.00,CLR,,0.00,WeatherDisplay:10.37,2013-08-24 13:54:00,
2013-08-24 08:55:00,80.0,75.8,29.65,SE,135,4.0,4.0,87,0.00,CLR,,0.00,WeatherDisplay:10.37,2013-08-24 13:55:00,
2013-08-24 08:58:00,81.0,76.4,29.65,East,90,4.6,4.6,86,0.00,CLR,,0.00,WeatherDisplay:10.37,2013-08-24 13:58:00,
2013-08-24 08:59:00,81.0,76.4,29.65,SE,135,4.6,4.6,86,0.00,CLR,,0.00,WeatherDisplay:10.37,2013-08-24 13:59:00,
2013-08-24 09:00:00,81.0,76.4,29.65,SE,135,4.6,4.6,86,0.00,CLR,,0.00,WeatherDisplay:10.37,2013-08-24 14:00:00,
2013-08-24 09:03:00,81.0,76.1,29.65,NE,45,3.5,3.5,85,0.00,CLR,,0.00,WeatherDisplay:10.37,2013-08-24 14:03:00,
2013-08-24 09:04:00,81.0,76.1,29.65,NE,45,3.5,3.5,85,0.00,CLR,,0.00,WeatherDisplay:10.37,2013-08-24 14:04:00,
2013-08-24 09:05:00,81.0,76.1,29.65,ESE,112,4.6,4.6,85,0.00,CLR,,0.00,WeatherDisplay:10.37,2013-08-24 14:05:00,
2013-08-24 09:06:00,81.0,76.1,29.65,SE,135,4.6,4.6,85,0.00,CLR,,0.00,WeatherDisplay:10.37,2013-08-24 14:06:00,
2013-08-24 09:09:00,81.0,76.1,29.65,ENE,67,3.5,3.5,85,0.00,CLR,,0.00,WeatherDisplay:10.37,2013-08-24 14:09:00,
2013-08-24 09:10:00,81.0,76.1,29.65,ESE,112,7.0,7.0,85,0.00,CLR,,0.00,WeatherDisplay:10.37,2013-08-24 14:10:00,
2013-08-24 09:11:00,81.0,76.1,29.65,ESE,112,6.9,6.9,85,0.00,CLR,,0.00,WeatherDisplay:10.37,2013-08-24 14:11:00,
2013-08-24 09:14:00,81.0,75.3,29.65,East,90,9.2,9.2,83,0.00,CLR,,0.00,WeatherDisplay:10.37,2013-08-24 14:14:00,
2013-08-24 09:15:00,81.0,75.3,29.65,SE,135,9.2,9.2,83,0.00,CLR,,0.00,WeatherDisplay:10.37,2013-08-24 14:15:00,
2013-08-24 09:16:00,81.0,75.3,29.65,ESE,112,10.4,10.4,83,0.00,CLR,,0.00,WeatherDisplay:10.37,2013-08-24 14:16:00,
2013-08-24 09:19:00,81.0,75.3,29.65,SSE,157,10.4,10.4,83,0.00,CLR,,0.00,WeatherDisplay:10.37,2013-08-24 14:19:00,
2013-08-24 09:20:00,81.0,75.3,29.65,ESE,112,4.6,4.6,83,0.00,CLR,,0.00,WeatherDisplay:10.37,2013-08-24 14:20:00,
2013-08-24 09:21:00,81.0,75.3,29.65,SSE,157,6.9,6.9,83,0.00,CLR,,0.00,WeatherDisplay:10.37,2013-08-24 14:21:00,
2013-08-24 09:24:00,81.0,75.3,29.65,SE,135,9.2,9.2,83,0.00,CLR,,0.00,WeatherDisplay:10.37,2013-08-24 14:24:00,
2013-08-24 09:25:00,81.0,75.3,29.65,East,90,6.9,6.9,83,0.00,CLR,,0.00,WeatherDisplay:10.37,2013-08-24 14:25:00,
2013-08-24 09:26:00,81.0,75.3,29.65,SSE,157,3.5,3.5,83,0.00,CLR,,0.00,WeatherDisplay:10.37,2013-08-24 14:26:00,
2013-08-24 09:29:00,81.0,75.0,29.65,SE,135,5.8,5.8,82,0.00,CLR,,0.00,WeatherDisplay:10.37,2013-08-24 14:29:00,
2013-08-24 09:30:00,81.0,75.0,29.65,SE,135,8.1,8.1,82,0.00,CLR,,0.00,WeatherDisplay:10.37,2013-08-24 14:30:00,
2013-08-24 09:31:00,81.0,75.0,29.65,East,90,4.6,4.6,82,0.00,CLR,,0.00,WeatherDisplay:10.37,2013-08-24 14:31:00,
2013-08-24 09:34:00,82.0,75.6,29.65,East,90,3.5,3.5,81,0.00,CLR,,0.00,WeatherDisplay:10.37,2013-08-24 14:34:00,
2013-08-24 09:35:00,82.0,75.6,29.65,East,90,4.6,4.6,81,0.00,CLR,,0.00,WeatherDisplay:10.37,2013-08-24 14:35:00,
2013-08-24 09:36:00,82.0,75.6,29.65,ESE,112,5.8,5.8,81,0.00,CLR,,0.00,WeatherDisplay:10.37,2013-08-24 14:36:00,
2013-08-24 09:37:00,82.0,75.6,29.65,SSE,157,5.8,5.8,81,0.00,CLR,,0.00,WeatherDisplay:10.37,2013-08-24 14:37:00,
2013-08-24 09:39:00,82.0,74.8,29.65,NE,45,3.5,3.5,79,0.00,CLR,,0.00,WeatherDisplay:10.37,2013-08-24 14:39:00,
2013-08-24 09:40:00,83.0,75.8,29.65,SE,135,4.0,4.0,79,0.00,CLR,,0.00,WeatherDisplay:10.37,2013-08-24 14:40:00,
2013-08-24 09:42:00,83.0,75.4,29.65,SSE,157,8.0,8.0,78,0.00,CLR,,0.00,WeatherDisplay:10.37,2013-08-24 14:42:00,
2013-08-24 09:43:00,83.0,75.0,29.65,SE,135,9.2,9.2,77,0.00,CLR,,0.00,WeatherDisplay:10.37,2013-08-24 14:43:00,
2013-08-24 09:45:00,83.0,74.6,29.65,SE,135,8.1,8.1,76,0.00,CLR,,0.00,WeatherDisplay:10.37,2013-08-24 14:45:00,
2013-08-24 09:47:00,83.0,74.6,29.65,ESE,112,8.1,8.1,76,0.00,CLR,,0.00,WeatherDisplay:10.37,2013-08-24 14:47:00,
2013-08-24 09:48:00,83.0,75.0,29.65,SE,135,8.1,8.1,77,0.00,CLR,,0.00,WeatherDisplay:10.37,2013-08-24 14:48:00,
2013-08-24 09:51:00,83.0,75.0,29.65,East,90,6.9,6.9,77,0.00,CLR,,0.00,WeatherDisplay:10.37,2013-08-24 14:51:00,
2013-08-24 09:52:00,83.0,74.3,29.65,SE,135,6.9,6.9,75,0.00,CLR,,0.00,WeatherDisplay:10.37,2013-08-24 14:52:00,
2013-08-24 09:54:00,83.0,74.3,29.65,ENE,67,4.0,4.0,75,0.00,CLR,,0.00,WeatherDisplay:10.37,2013-08-24 14:54:00,
2013-08-24 09:56:00,83.0,73.9,29.65,NE,45,3.5,3.5,74,0.00,CLR,,0.00,WeatherDisplay:10.37,2013-08-24 14:56:00,
2013-08-24 09:57:00,84.0,75.2,29.65,NE,45,3.5,3.5,75,0.00,CLR,,0.00,WeatherDisplay:10.37,2013-08-24 14:57:00,
2013-08-24 09:58:00,84.0,75.2,29.65,ENE,67,3.5,3.5,75,0.00,CLR,,0.00,WeatherDisplay:10.37,2013-08-24 14:58:00,
2013-08-24 09:59:00,84.0,75.6,29.65,ENE,67,5.0,5.0,76,0.00,CLR,,0.00,WeatherDisplay:10.37,2013-08-24 14:59:00,
2013-08-24 10:01:00,84.0,75.2,29.65,East,90,4.0,4.0,75,0.00,CLR,,0.00,WeatherDisplay:10.37,2013-08-24 15:01:00,
2013-08-24 10:02:00,84.0,74.8,29.65,NE,45,10.4,10.4,74,0.00,CLR,,0.00,WeatherDisplay:10.37,2013-08-24 15:02:00,
2013-08-24 10:03:00,84.0,74.8,29.65,NE,45,6.9,6.9,74,0.00,CLR,,0.00,WeatherDisplay:10.37,2013-08-24 15:03:00,
2013-08-24 10:04:00,84.0,74.8,29.65,East,90,3.5,3.5,74,0.00,CLR,,0.00,WeatherDisplay:10.37,2013-08-24 15:04:00,
2013-08-24 10:06:00,84.0,74.4,29.65,East,90,9.2,9.2,73,0.00,CLR,,0.00,WeatherDisplay:10.37,2013-08-24 15:06:00,
2013-08-24 10:07:00,84.0,74.4,29.65,East,90,3.0,3.0,73,0.00,CLR,,0.00,WeatherDisplay:10.37,2013-08-24 15:07:00,
2013-08-24 10:08:00,84.0,74.8,29.65,NE,45,5.8,5.8,74,0.00,CLR,,0.00,WeatherDisplay:10.37,2013-08-24 15:08:00,
2013-08-24 10:09:00,84.0,74.8,29.65,NE,45,5.8,5.8,74,0.00,CLR,,0.00,WeatherDisplay:10.37,2013-08-24 15:09:00,
2013-08-24 10:11:00,85.0,75.0,29.65,SE,135,4.6,4.6,72,0.00,CLR,,0.00,WeatherDisplay:10.37,2013-08-24 15:11:00,
2013-08-24 10:13:00,85.0,75.0,29.65,East,90,4.0,4.0,72,0.00,CLR,,0.00,WeatherDisplay:10.37,2013-08-24 15:13:00,
2013-08-24 10:14:00,85.0,75.4,29.65,East,90,8.1,8.1,73,0.00,CLR,,0.00,WeatherDisplay:10.37,2013-08-24 15:14:00,
2013-08-24 10:16:00,86.0,74.6,29.65,SSE,157,3.5,3.5,69,0.00,CLR,,0.00,WeatherDisplay:10.37,2013-08-24 15:16:00,
2013-08-24 10:18:00,86.0,74.2,29.65,SE,135,6.9,6.9,68,0.00,CLR,,0.00,WeatherDisplay:10.37,2013-08-24 15:18:00,
2013-08-24 10:19:00,86.0,74.2,29.65,SE,135,5.8,5.8,68,0.00,CLR,,0.00,WeatherDisplay:10.37,2013-08-24 15:19:00,
2013-08-24 10:21:00,87.0,74.3,29.65,NNE,22,4.6,4.6,66,0.00,CLR,,0.00,WeatherDisplay:10.37,2013-08-24 15:21:00,
2013-08-24 10:22:00,87.0,74.3,29.65,South,180,3.5,3.5,66,0.00,CLR,,0.00,WeatherDisplay:10.37,2013-08-24 15:22:00,
2013-08-24 10:23:00,87.0,73.3,29.65,SE,135,6.9,6.9,64,0.00,CLR,,0.00,WeatherDisplay:10.37,2013-08-24 15:23:00,
2013-08-24 10:24:00,87.0,73.8,29.65,SE,135,6.9,6.9,65,0.00,CLR,,0.00,WeatherDisplay:10.37,2013-08-24 15:24:00,
2013-08-24 10:25:00,87.0,73.8,29.65,ENE,67,5.0,5.0,65,0.00,CLR,,0.00,WeatherDisplay:10.37,2013-08-24 15:25:00,
2013-08-24 10:26:00,87.0,72.9,29.65,ESE,112,6.9,6.9,63,0.00,CLR,,0.00,WeatherDisplay:10.37,2013-08-24 15:26:00,
2013-08-24 10:27:00,87.0,72.9,29.65,East,90,4.6,4.6,63,0.00,CLR,,0.00,WeatherDisplay:10.37,2013-08-24 15:27:00,
2013-08-24 10:28:00,87.0,73.8,29.65,NE,45,3.5,3.5,65,0.00,CLR,,0.00,WeatherDisplay:10.37,2013-08-24 15:28:00,
2013-08-24 10:29:00,87.0,73.8,29.65,ENE,67,4.6,4.6,65,0.00,CLR,,0.00,WeatherDisplay:10.37,2013-08-24 15:29:00,
2013-08-24 10:30:00,87.0,73.8,29.65,SE,135,3.5,3.5,65,0.00,CLR,,0.00,WeatherDisplay:10.37,2013-08-24 15:30:00,
2013-08-24 10:31:00,87.0,73.3,29.65,East,90,3.5,3.5,64,0.00,CLR,,0.00,WeatherDisplay:10.37,2013-08-24 15:31:00,
2013-08-24 10:32:00,87.0,73.3,29.65,SE,135,3.5,3.5,64,0.00,CLR,,0.00,WeatherDisplay:10.37,2013-08-24 15:32:00,
2013-08-24 10:33:00,88.0,73.8,29.65,ENE,67,5.8,5.8,63,0.00,CLR,,0.00,WeatherDisplay:10.37,2013-08-24 15:33:00,
2013-08-24 10:34:00,88.0,73.8,29.65,ENE,67,3.5,3.5,63,0.00,CLR,,0.00,WeatherDisplay:10.37,2013-08-24 15:34:00,
2013-08-24 10:35:00,88.0,73.8,29.65,East,90,3.5,3.5,63,0.00,CLR,,0.00,WeatherDisplay:10.37,2013-08-24 15:35:00,
2013-08-24 10:37:00,88.0,72.9,29.65,SSE,157,5.8,5.8,61,0.00,CLR,,0.00,WeatherDisplay:10.37,2013-08-24 15:37:00,
2013-08-24 10:38:00,88.0,72.9,29.65,NE,45,3.5,3.5,61,0.00,CLR,,0.00,WeatherDisplay:10.37,2013-08-24 15:38:00,
2013-08-24 10:39:00,89.0,73.3,29.65,NE,45,3.5,3.5,60,0.00,CLR,,0.00,WeatherDisplay:10.37,2013-08-24 15:39:00,
2013-08-24 10:40:00,89.0,73.3,29.65,NE,45,4.6,4.6,60,0.00,CLR,,0.00,WeatherDisplay:10.37,2013-08-24 15:40:00,
2013-08-24 10:42:00,89.0,73.3,29.65,SSE,157,6.0,6.0,60,0.00,CLR,,0.00,WeatherDisplay:10.37,2013-08-24 15:42:00,
2013-08-24 10:44:00,89.0,72.8,29.65,SSE,157,5.8,5.8,59,0.00,CLR,,0.00,WeatherDisplay:10.37,2013-08-24 15:44:00,
2013-08-24 10:45:00,89.0,72.3,29.65,SE,135,8.0,8.0,58,0.00,CLR,,0.00,WeatherDisplay:10.37,2013-08-24 15:45:00,
2013-08-24 10:47:00,89.0,72.8,29.65,ENE,67,5.8,5.8,59,0.00,CLR,,0.00,WeatherDisplay:10.37,2013-08-24 15:47:00,
2013-08-24 10:49:00,89.0,72.8,29.65,SE,135,7.0,7.0,59,0.00,CLR,,0.00,WeatherDisplay:10.37,2013-08-24 15:49:00,
2013-08-24 10:50:00,89.0,72.8,29.65,SSE,157,8.0,8.0,59,0.00,CLR,,0.00,WeatherDisplay:10.37,2013-08-24 15:50:00,
2013-08-24 10:51:00,88.0,72.4,29.65,SE,135,9.2,9.2,60,0.00,CLR,,0.00,WeatherDisplay:10.37,2013-08-24 15:51:00,
2013-08-24 10:52:00,88.0,71.9,29.65,SE,135,5.8,5.8,59,0.00,CLR,,0.00,WeatherDisplay:10.37,2013-08-24 15:52:00,
2013-08-24 10:54:00,88.0,71.9,29.65,SE,135,4.6,4.6,59,0.00,CLR,,0.00,WeatherDisplay:10.37,2013-08-24 15:54:00,
2013-08-24 10:55:00,88.0,71.9,29.65,SE,135,6.9,6.9,59,0.00,CLR,,0.00,WeatherDisplay:10.37,2013-08-24 15:55:00,
2013-08-24 10:56:00,88.0,71.9,29.65,East,90,5.8,5.8,59,0.00,CLR,,0.00,WeatherDisplay:10.37,2013-08-24 15:56:00,
2013-08-24 10:57:00,89.0,72.3,29.65,ENE,67,3.0,3.0,58,0.00,CLR,,0.00,WeatherDisplay:10.37,2013-08-24 15:57:00,
2013-08-24 10:58:00,89.0,72.3,29.65,ENE,67,4.0,4.0,58,0.00,CLR,,0.00,WeatherDisplay:10.37,2013-08-24 15:58:00,
2013-08-24 10:59:00,89.0,72.3,29.65,NE,45,5.8,5.8,58,0.00,CLR,,0.00,WeatherDisplay:10.37,2013-08-24 15:59:00,
2013-08-24 11:00:00,89.0,72.3,29.65,ENE,67,4.6,4.6,58,0.00,CLR,,0.00,WeatherDisplay:10.37,2013-08-24 16:00:00,
2013-08-24 11:01:00,89.0,72.8,29.65,NE,45,4.6,4.6,59,0.00,CLR,,0.00,WeatherDisplay:10.37,2013-08-24 16:01:00,
2013-08-24 11:02:00,89.0,71.3,29.65,South,180,5.8,5.8,56,0.00,CLR,,0.00,WeatherDisplay:10.37,2013-08-24 16:02:00,
2013-08-24 11:03:00,89.0,71.8,29.65,SE,135,3.5,3.5,57,0.00,CLR,,0.00,WeatherDisplay:10.37,2013-08-24 16:03:00,
2013-08-24 11:05:00,90.0,72.7,29.65,ENE,67,6.9,6.9,57,0.00,CLR,,0.00,WeatherDisplay:10.37,2013-08-24 16:05:00,
2013-08-24 11:06:00,90.0,72.2,29.65,ENE,67,3.5,3.5,56,0.00,CLR,,0.00,WeatherDisplay:10.37,2013-08-24 16:06:00,
2013-08-24 11:07:00,90.0,72.7,29.65,SSE,157,8.0,8.0,57,0.00,CLR,,0.00,WeatherDisplay:10.37,2013-08-24 16:07:00,
2013-08-24 11:08:00,90.0,71.7,29.65,SE,135,9.2,9.2,55,0.00,CLR,,0.00,WeatherDisplay:10.37,2013-08-24 16:08:00,
2013-08-24 11:10:00,90.0,71.1,29.65,SE,135,3.5,3.5,54,0.00,CLR,,0.00,WeatherDisplay:10.37,2013-08-24 16:10:00,
2013-08-24 11:11:00,90.0,71.1,29.65,East,90,3.5,3.5,54,0.00,CLR,,0.00,WeatherDisplay:10.37,2013-08-24 16:11:00,
2013-08-24 11:12:00,90.0,71.1,29.65,SW,225,3.5,3.5,54,0.00,CLR,,0.00,WeatherDisplay:10.37,2013-08-24 16:12:00,
2013-08-24 11:13:00,91.0,72.0,29.65,East,90,3.5,3.5,54,0.00,CLR,,0.00,WeatherDisplay:10.37,2013-08-24 16:13:00,
2013-08-24 11:15:00,91.0,72.0,29.65,ESE,112,4.6,4.6,54,0.00,CLR,,0.00,WeatherDisplay:10.37,2013-08-24 16:15:00,
2013-08-24 11:16:00,91.0,71.5,29.65,SSE,157,6.9,6.9,53,0.00,CLR,,0.00,WeatherDisplay:10.37,2013-08-24 16:16:00,
2013-08-24 11:18:00,91.0,72.0,29.65,SE,135,6.9,6.9,54,0.00,CLR,,0.00,WeatherDisplay:10.37,2013-08-24 16:18:00,
2013-08-24 11:20:00,90.0,71.7,29.65,NE,45,5.0,5.0,55,0.00,CLR,,0.00,WeatherDisplay:10.37,2013-08-24 16:20:00,
2013-08-24 11:22:00,90.0,72.2,29.65,NE,45,4.6,4.6,56,0.00,CLR,,0.00,WeatherDisplay:10.37,2013-08-24 16:22:00,
2013-08-24 11:23:00,90.0,72.2,29.65,ENE,67,4.0,4.0,56,0.00,CLR,,0.00,WeatherDisplay:10.37,2013-08-24 16:23:00,
2013-08-24 11:25:00,91.0,72.0,29.65,East,90,5.8,5.8,54,0.00,CLR,,0.00,WeatherDisplay:10.37,2013-08-24 16:25:00,
2013-08-24 11:26:00,91.0,72.0,29.65,SSE,157,6.9,6.9,54,0.00,CLR,,0.00,WeatherDisplay:10.37,2013-08-24 16:26:00,
2013-08-24 11:27:00,91.0,72.0,29.65,NW,315,5.8,5.8,54,0.00,CLR,,0.00,WeatherDisplay:10.37,2013-08-24 16:27:00,
2013-08-24 11:28:00,91.0,72.0,29.65,North,360,4.0,4.0,54,0.00,CLR,,0.00,WeatherDisplay:10.37,2013-08-24 16:28:00,
2013-08-24 11:29:00,91.0,72.0,29.65,NE,45,4.6,4.6,54,0.00,CLR,,0.00,WeatherDisplay:10.37,2013-08-24 16:29:00,
2013-08-24 11:30:00,91.0,71.5,29.65,SE,135,5.0,5.0,53,0.00,CLR,,0.00,WeatherDisplay:10.37,2013-08-24 16:30:00,
2013-08-24 11:31:00,92.0,72.4,29.65,East,90,4.6,4.7,53,0.00,CLR,,0.00,WeatherDisplay:10.37,2013-08-24 16:31:00,
2013-08-24 11:32:00,91.0,71.5,29.65,SE,135,9.2,9.2,53,0.00,CLR,,0.00,WeatherDisplay:10.37,2013-08-24 16:32:00,
2013-08-24 11:33:00,91.0,71.5,29.65,SE,135,9.2,9.2,53,0.00,CLR,,0.00,WeatherDisplay:10.37,2013-08-24 16:33:00,
2013-08-24 11:34:00,91.0,71.5,29.65,SE,135,8.0,8.0,53,0.00,CLR,,0.00,WeatherDisplay:10.37,2013-08-24 16:34:00,
2013-08-24 11:35:00,91.0,71.5,29.65,SSE,157,9.2,9.2,53,0.00,CLR,,0.00,WeatherDisplay:10.37,2013-08-24 16:35:00,
2013-08-24 11:39:00,91.0,72.0,29.65,ESE,112,9.2,9.2,54,0.00,CLR,,0.00,WeatherDisplay:10.37,2013-08-24 16:39:00,
2013-08-24 11:41:00,91.0,71.5,29.65,NE,45,3.5,3.5,53,0.00,CLR,,0.00,WeatherDisplay:10.37,2013-08-24 16:41:00,
2013-08-24 11:44:00,91.0,70.9,29.65,NE,45,4.6,4.6,52,0.00,CLR,,0.00,WeatherDisplay:10.37,2013-08-24 16:44:00,
2013-08-24 11:46:00,91.0,72.0,29.65,NE,45,4.6,4.6,54,0.00,CLR,,0.00,WeatherDisplay:10.37,2013-08-24 16:46:00,
2013-08-24 11:49:00,91.0,70.9,29.65,SE,135,6.9,6.9,52,0.00,CLR,,0.00,WeatherDisplay:10.37,2013-08-24 16:49:00,
2013-08-24 11:50:00,91.0,70.9,29.65,SSE,157,6.9,6.9,52,0.00,CLR,,0.00,WeatherDisplay:10.37,2013-08-24 16:50:00,
2013-08-24 11:51:00,91.0,70.9,29.65,East,90,9.2,9.2,52,0.00,CLR,,0.00,WeatherDisplay:10.37,2013-08-24 16:51:00,
2013-08-24 11:54:00,91.0,70.9,29.65,SE,135,8.0,8.0,52,0.00,CLR,,0.00,WeatherDisplay:10.37,2013-08-24 16:54:00,
2013-08-24 11:55:00,91.0,70.9,29.65,South,180,9.2,9.2,52,0.00,CLR,,0.00,WeatherDisplay:10.37,2013-08-24 16:55:00,
2013-08-24 11:56:00,91.0,70.9,29.65,SSE,157,9.2,9.2,52,0.00,CLR,,0.00,WeatherDisplay:10.37,2013-08-24 16:56:00,
2013-08-24 11:59:00,91.0,70.9,29.65,SSE,157,5.8,5.8,52,0.00,CLR,,0.00,WeatherDisplay:10.37,2013-08-24 16:59:00,
2013-08-24 12:00:00,91.0,70.9,29.65,SE,135,5.8,5.8,52,0.00,CLR,,0.00,WeatherDisplay:10.37,2013-08-24 17:00:00,
2013-08-24 12:01:00,92.0,71.9,29.65,SE,135,5.8,5.8,52,0.00,CLR,,0.00,WeatherDisplay:10.37,2013-08-24 17:01:00,
2013-08-24 12:05:00,91.0,70.4,29.65,ESE,112,4.6,4.6,51,0.00,CLR,,0.00,WeatherDisplay:10.37,2013-08-24 17:05:00,
2013-08-24 12:06:00,91.0,70.9,29.65,NNE,22,3.5,3.5,52,0.00,CLR,,0.00,WeatherDisplay:10.37,2013-08-24 17:06:00,
2013-08-24 12:10:00,92.0,71.9,29.65,SE,135,4.0,4.0,52,0.00,CLR,,0.00,WeatherDisplay:10.37,2013-08-24 17:10:00,
2013-08-24 12:12:00,93.0,71.6,29.65,SSE,157,8.1,8.1,50,0.00,CLR,,0.00,WeatherDisplay:10.37,2013-08-24 17:12:00,
2013-08-24 12:15:00,93.0,72.2,29.65,ESE,112,5.0,5.0,51,0.00,CLR,,0.00,WeatherDisplay:10.37,2013-08-24 17:15:00,
2013-08-24 12:16:00,93.0,71.0,29.65,South,180,12.7,12.7,49,0.00,CLR,,0.00,WeatherDisplay:10.37,2013-08-24 17:16:00,
2013-08-24 12:17:00,93.0,71.0,29.65,SSE,157,12.7,12.7,49,0.00,CLR,,0.00,WeatherDisplay:10.37,2013-08-24 17:17:00,
2013-08-24 12:20:00,93.0,71.0,29.65,ESE,112,9.2,9.2,49,0.00,CLR,,0.00,WeatherDisplay:10.37,2013-08-24 17:20:00,
2013-08-24 12:21:00,93.0,71.0,29.65,SSE,157,9.2,9.2,49,0.00,CLR,,0.00,WeatherDisplay:10.37,2013-08-24 17:21:00,
2013-08-24 12:22:00,93.0,71.0,29.65,SE,135,10.0,10.0,49,0.00,CLR,,0.00,WeatherDisplay:10.37,2013-08-24 17:22:00,
2013-08-24 12:25:00,92.0,70.1,29.65,South,180,9.2,9.2,49,0.00,CLR,,0.00,WeatherDisplay:10.37,2013-08-24 17:25:00,
2013-08-24 12:26:00,92.0,70.1,29.65,NE,45,8.1,8.1,49,0.00,CLR,,0.00,WeatherDisplay:10.37,2013-08-24 17:26:00,
2013-08-24 12:27:00,92.0,70.1,29.65,SSE,157,3.5,3.5,49,0.00,CLR,,0.00,WeatherDisplay:10.37,2013-08-24 17:27:00,
2013-08-24 12:31:00,93.0,70.4,29.65,SE,135,8.1,8.1,48,0.00,CLR,,0.00,WeatherDisplay:10.37,2013-08-24 17:31:00,
2013-08-24 12:32:00,93.0,70.4,29.65,SE,135,13.8,13.8,48,0.00,CLR,,0.00,WeatherDisplay:10.37,2013-08-24 17:32:00,
2013-08-24 12:36:00,92.0,70.1,29.65,ESE,112,10.4,10.4,49,0.00,CLR,,0.00,WeatherDisplay:10.37,2013-08-24 17:36:00,
2013-08-24 12:37:00,91.0,69.2,29.65,NE,45,9.2,9.2,49,0.00,CLR,,0.00,WeatherDisplay:10.37,2013-08-24 17:37:00,
2013-08-24 12:41:00,92.0,70.1,29.65,ESE,112,5.8,5.8,49,0.00,CLR,,0.00,WeatherDisplay:10.37,2013-08-24 17:41:00,
2013-08-24 12:42:00,92.0,70.1,29.65,East,90,8.1,8.1,49,0.00,CLR,,0.00,WeatherDisplay:10.37,2013-08-24 17:42:00,
2013-08-24 12:46:00,94.0,70.7,29.65,NE,45,5.8,5.8,47,0.00,CLR,,0.00,WeatherDisplay:10.37,2013-08-24 17:46:00,
2013-08-24 12:47:00,94.0,70.7,29.65,NNW,337,3.5,3.5,47,0.00,CLR,,0.00,WeatherDisplay:10.37,2013-08-24 17:47:00,
2013-08-24 12:51:00,93.0,69.8,29.65,ESE,112,11.5,11.5,47,0.00,CLR,,0.00,WeatherDisplay:10.37,2013-08-24 17:51:00,
2013-08-24 12:52:00,93.0,69.8,29.65,SE,135,9.2,9.2,47,0.00,CLR,,0.00,WeatherDisplay:10.37,2013-08-24 17:52:00,
2013-08-24 12:56:00,94.0,70.7,29.65,SSE,157,8.1,8.1,47,0.00,CLR,,0.00,WeatherDisplay:10.37,2013-08-24 17:56:00,
2013-08-24 12:57:00,94.0,70.7,29.65,ESE,112,9.2,9.2,47,0.00,CLR,,0.00,WeatherDisplay:10.37,2013-08-24 17:57:00,
2013-08-24 13:01:00,94.0,70.7,29.65,SSE,157,8.1,8.1,47,0.00,CLR,,0.00,WeatherDisplay:10.37,2013-08-24 18:01:00,
2013-08-24 13:02:00,94.0,70.7,29.65,SE,135,10.4,10.4,47,0.00,CLR,,0.00,WeatherDisplay:10.37,2013-08-24 18:02:00,
2013-08-24 13:06:00,94.0,70.7,29.65,ESE,112,8.1,8.1,47,0.00,CLR,,0.00,WeatherDisplay:10.37,2013-08-24 18:06:00,
2013-08-24 13:07:00,94.0,70.1,29.65,ENE,67,8.1,8.1,46,0.00,CLR,,0.00,WeatherDisplay:10.37,2013-08-24 18:07:00,
2013-08-24 13:08:00,93.0,69.2,29.65,SE,135,8.1,8.1,46,0.00,CLR,,0.00,WeatherDisplay:10.37,2013-08-24 18:08:00,
2013-08-24 13:12:00,93.0,69.8,29.65,NE,45,8.1,8.1,47,0.00,CLR,,0.00,WeatherDisplay:10.37,2013-08-24 18:12:00,
2013-08-24 13:13:00,93.0,69.8,29.65,SSE,157,9.2,9.2,47,0.00,CLR,,0.00,WeatherDisplay:10.37,2013-08-24 18:13:00,
2013-08-24 13:14:00,93.0,69.8,29.65,NE,45,11.5,11.5,47,0.00,CLR,,0.00,WeatherDisplay:10.37,2013-08-24 18:14:00,
2013-08-24 13:17:00,93.0,69.8,29.65,East,90,4.6,4.6,47,0.00,CLR,,0.00,WeatherDisplay:10.37,2013-08-24 18:17:00,
2013-08-24 13:18:00,94.0,70.7,29.65,ESE,112,9.2,9.2,47,0.00,CLR,,0.00,WeatherDisplay:10.37,2013-08-24 18:18:00,
2013-08-24 13:19:00,94.0,70.1,29.65,ESE,112,7.0,7.0,46,0.00,CLR,,0.00,WeatherDisplay:10.37,2013-08-24 18:19:00,
2013-08-24 13:22:00,94.0,70.1,29.65,SE,135,6.9,6.9,46,0.00,CLR,,0.00,WeatherDisplay:10.37,2013-08-24 18:22:00,
2013-08-24 13:23:00,94.0,70.1,29.65,North,360,4.6,4.6,46,0.00,CLR,,0.00,WeatherDisplay:10.37,2013-08-24 18:23:00,
2013-08-24 13:24:00,94.0,70.1,29.65,SE,135,12.7,12.7,46,0.00,CLR,,0.00,WeatherDisplay:10.37,2013-08-24 18:24:00,
2013-08-24 13:27:00,94.0,69.4,29.65,SE,135,8.1,8.1,45,0.00,CLR,,0.00,WeatherDisplay:10.37,2013-08-24 18:27:00,
2013-08-24 13:28:00,94.0,70.1,29.65,East,90,9.2,9.2,46,0.00,CLR,,0.00,WeatherDisplay:10.37,2013-08-24 18:28:00,
2013-08-24 13:29:00,94.0,70.1,29.65,ESE,112,6.0,6.0,46,0.00,CLR,,0.00,WeatherDisplay:10.37,2013-08-24 18:29:00,
2013-08-24 13:32:00,94.0,70.1,29.65,SE,135,8.1,8.1,46,0.00,CLR,,0.00,WeatherDisplay:10.37,2013-08-24 18:32:00,
2013-08-24 13:33:00,94.0,70.1,29.65,SE,135,9.2,9.2,46,0.00,CLR,,0.00,WeatherDisplay:10.37,2013-08-24 18:33:00,
2013-08-24 13:34:00,94.0,70.7,29.65,SSE,157,6.9,6.9,47,0.00,CLR,,0.00,WeatherDisplay:10.37,2013-08-24 18:34:00,
2013-08-24 13:37:00,95.0,70.3,29.65,ESE,112,4.6,4.6,45,0.00,CLR,,0.00,WeatherDisplay:10.37,2013-08-24 18:37:00,
2013-08-24 13:38:00,95.0,70.3,29.65,ESE,112,5.8,5.8,45,0.00,CLR,,0.00,WeatherDisplay:10.37,2013-08-24 18:38:00,
2013-08-24 13:39:00,95.0,71.0,29.65,East,90,3.5,3.5,46,0.00,CLR,,0.00,WeatherDisplay:10.37,2013-08-24 18:39:00,
2013-08-24 13:42:00,96.0,71.2,29.65,ENE,67,4.6,4.6,45,0.00,CLR,,0.00,WeatherDisplay:10.37,2013-08-24 18:42:00,
2013-08-24 13:43:00,96.0,71.2,29.65,SE,135,4.6,4.6,45,0.00,CLR,,0.00,WeatherDisplay:10.37,2013-08-24 18:43:00,
2013-08-24 13:44:00,96.0,71.2,29.65,East,90,4.6,4.6,45,0.00,CLR,,0.00,WeatherDisplay:10.37,2013-08-24 18:44:00,
2013-08-24 13:48:00,97.0,70.8,29.65,South,180,6.9,6.9,43,0.00,CLR,,0.00,WeatherDisplay:10.37,2013-08-24 18:48:00,
2013-08-24 13:49:00,97.0,70.8,29.65,East,90,5.8,5.8,43,0.00,CLR,,0.00,WeatherDisplay:10.37,2013-08-24 18:49:00,
2013-08-24 13:50:00,97.0,70.8,29.65,NE,45,8.1,8.1,43,0.00,CLR,,0.00,WeatherDisplay:10.37,2013-08-24 18:50:00,
2013-08-24 13:53:00,96.0,69.2,29.65,ESE,112,12.7,12.7,42,0.00,CLR,,0.00,WeatherDisplay:10.37,2013-08-24 18:53:00,
2013-08-24 13:54:00,96.0,69.2,29.65,East,90,8.1,8.1,42,0.00,CLR,,0.00,WeatherDisplay:10.37,2013-08-24 18:54:00,
2013-08-24 13:55:00,96.0,69.9,29.65,SSE,157,9.2,9.2,43,0.00,CLR,,0.00,WeatherDisplay:10.37,2013-08-24 18:55:00,
2013-08-24 13:58:00,96.0,69.9,29.65,South,180,6.9,6.9,43,0.00,CLR,,0.00,WeatherDisplay:10.37,2013-08-24 18:58:00,
2013-08-24 13:59:00,96.0,69.9,29.65,NNE,22,5.8,5.8,43,0.00,CLR,,0.00,WeatherDisplay:10.37,2013-08-24 18:59:00,
2013-08-24 14:01:00,96.0,68.5,29.65,SW,225,4.6,4.6,41,0.00,CLR,,0.00,WeatherDisplay:10.37,2013-08-24 19:01:00,
2013-08-24 14:04:00,96.0,69.2,29.65,ESE,112,8.1,8.1,42,0.00,CLR,,0.00,WeatherDisplay:10.37,2013-08-24 19:04:00,
2013-08-24 14:05:00,96.0,69.2,29.65,SSW,202,8.1,8.1,42,0.00,CLR,,0.00,WeatherDisplay:10.37,2013-08-24 19:05:00,
2013-08-24 14:06:00,96.0,69.2,29.65,SE,135,9.2,9.2,42,0.00,CLR,,0.00,WeatherDisplay:10.37,2013-08-24 19:06:00,
2013-08-24 14:09:00,97.0,69.4,29.65,SE,135,7.0,7.0,41,0.00,CLR,,0.00,WeatherDisplay:10.37,2013-08-24 19:09:00,
2013-08-24 14:10:00,96.0,68.5,29.65,SSE,157,9.2,9.2,41,0.00,CLR,,0.00,WeatherDisplay:10.37,2013-08-24 19:10:00,
2013-08-24 14:11:00,96.0,68.5,29.65,South,180,10.4,10.4,41,0.00,CLR,,0.00,WeatherDisplay:10.37,2013-08-24 19:11:00,
2013-08-24 14:14:00,96.0,68.5,29.65,SE,135,13.8,13.8,41,0.00,CLR,,0.00,WeatherDisplay:10.37,2013-08-24 19:14:00,
2013-08-24 14:15:00,96.0,68.5,29.65,SE,135,12.7,12.7,41,0.00,CLR,,0.00,WeatherDisplay:10.37,2013-08-24 19:15:00,
2013-08-24 14:16:00,95.0,66.9,29.65,SSE,157,12.7,12.7,40,0.00,CLR,,0.00,WeatherDisplay:10.37,2013-08-24 19:16:00,
2013-08-24 14:19:00,96.0,68.5,29.65,NE,45,5.8,5.8,41,0.00,CLR,,0.00,WeatherDisplay:10.37,2013-08-24 19:19:00,
2013-08-24 14:20:00,96.0,68.5,29.65,SE,135,10.0,10.0,41,0.00,CLR,,0.00,WeatherDisplay:10.37,2013-08-24 19:20:00,
2013-08-24 14:21:00,96.0,68.5,29.65,SE,135,14.0,14.0,41,0.00,CLR,,0.00,WeatherDisplay:10.37,2013-08-24 19:21:00,
2013-08-24 14:25:00,95.0,67.6,29.65,SE,135,11.5,11.5,41,0.00,CLR,,0.00,WeatherDisplay:10.37,2013-08-24 19:25:00,
2013-08-24 14:26:00,95.0,67.6,29.65,SE,135,11.5,11.5,41,0.00,CLR,,0.00,WeatherDisplay:10.37,2013-08-24 19:26:00,
2013-08-24 14:30:00,96.0,68.5,29.65,ENE,67,5.8,5.8,41,0.00,CLR,,0.00,WeatherDisplay:10.37,2013-08-24 19:30:00,
2013-08-24 14:31:00,96.0,68.5,29.65,NE,45,4.6,4.6,41,0.00,CLR,,0.00,WeatherDisplay:10.37,2013-08-24 19:31:00,
2013-08-24 14:32:00,96.0,68.5,29.65,East,90,4.6,4.6,41,0.00,CLR,,0.00,WeatherDisplay:10.37,2013-08-24 19:32:00,
2013-08-24 14:35:00,96.0,68.5,29.65,ESE,112,4.0,4.0,41,0.00,CLR,,0.00,WeatherDisplay:10.37,2013-08-24 19:35:00,
2013-08-24 14:36:00,96.0,67.8,29.65,South,180,10.4,10.4,40,0.00,CLR,,0.00,WeatherDisplay:10.37,2013-08-24 19:36:00,
2013-08-24 14:37:00,97.0,69.4,29.65,ENE,67,8.1,8.1,41,0.00,CLR,,0.00,WeatherDisplay:10.37,2013-08-24 19:37:00,
2013-08-24 14:40:00,97.0,68.7,29.65,ESE,112,11.5,11.5,40,0.00,CLR,,0.00,WeatherDisplay:10.37,2013-08-24 19:40:00,
2013-08-24 14:41:00,97.0,68.7,29.65,East,90,10.4,10.4,40,0.00,CLR,,0.00,WeatherDisplay:10.37,2013-08-24 19:41:00,
2013-08-24 14:43:00,97.0,68.7,29.65,NE,45,4.6,4.6,40,0.00,CLR,,0.00,WeatherDisplay:10.37,2013-08-24 19:43:00,
2013-08-24 14:46:00,96.0,67.8,29.65,SE,135,9.2,9.2,40,0.00,CLR,,0.00,WeatherDisplay:10.37,2013-08-24 19:46:00,
2013-08-24 14:47:00,96.0,67.8,29.65,SSE,157,11.5,11.5,40,0.00,CLR,,0.00,WeatherDisplay:10.37,2013-08-24 19:47:00,
2013-08-24 14:48:00,96.0,67.8,29.65,SE,135,11.5,11.5,40,0.00,CLR,,0.00,WeatherDisplay:10.37,2013-08-24 19:48:00,
2013-08-24 14:51:00,96.0,68.5,29.65,ENE,67,5.8,5.8,41,0.00,CLR,,0.00,WeatherDisplay:10.37,2013-08-24 19:51:00,
2013-08-24 14:52:00,96.0,68.5,29.65,SSE,157,8.1,8.1,41,0.00,CLR,,0.00,WeatherDisplay:10.37,2013-08-24 19:52:00,
2013-08-24 14:53:00,96.0,67.8,29.65,ESE,112,10.4,10.4,40,0.00,CLR,,0.00,WeatherDisplay:10.37,2013-08-24 19:53:00,
2013-08-24 14:56:00,96.0,68.5,29.65,East,90,10.4,10.4,41,0.00,CLR,,0.00,WeatherDisplay:10.37,2013-08-24 19:56:00,
2013-08-24 14:57:00,96.0,68.5,29.65,East,90,7.0,7.0,41,0.00,CLR,,0.00,WeatherDisplay:10.37,2013-08-24 19:57:00,
2013-08-24 14:58:00,96.0,68.5,29.65,ENE,67,9.2,9.2,41,0.00,CLR,,0.00,WeatherDisplay:10.37,2013-08-24 19:58:00,
2013-08-24 15:02:00,96.0,68.5,29.65,ENE,67,4.6,4.6,41,0.00,CLR,,0.00,WeatherDisplay:10.37,2013-08-24 20:02:00,
2013-08-24 15:04:00,97.0,69.4,29.65,SSE,157,8.1,8.1,41,0.00,CLR,,0.00,WeatherDisplay:10.37,2013-08-24 20:04:00,
2013-08-24 15:07:00,97.0,68.7,29.65,East,90,8.1,8.1,40,0.00,CLR,,0.00,WeatherDisplay:10.37,2013-08-24 20:07:00,
2013-08-24 15:08:00,97.0,68.7,29.65,SE,135,13.0,13.0,40,0.00,CLR,,0.00,WeatherDisplay:10.37,2013-08-24 20:08:00,
2013-08-24 15:09:00,97.0,68.7,29.65,South,180,11.5,11.5,40,0.00,CLR,,0.00,WeatherDisplay:10.37,2013-08-24 20:09:00,
2013-08-24 15:12:00,97.0,69.4,29.65,SE,135,5.8,5.8,41,0.00,CLR,,0.00,WeatherDisplay:10.37,2013-08-24 20:12:00,
2013-08-24 15:13:00,97.0,68.7,29.65,East,90,10.4,10.4,40,0.00,CLR,,0.00,WeatherDisplay:10.37,2013-08-24 20:13:00,
2013-08-24 15:15:00,97.0,67.9,29.65,SE,135,10.0,10.0,39,0.00,CLR,,0.00,WeatherDisplay:10.37,2013-08-24 20:15:00,
2013-08-24 15:17:00,97.0,68.7,29.65,SSE,157,11.5,11.5,40,0.00,CLR,,0.00,WeatherDisplay:10.37,2013-08-24 20:17:00,
2013-08-24 15:18:00,97.0,68.7,29.65,SE,135,10.4,10.4,40,0.00,CLR,,0.00,WeatherDisplay:10.37,2013-08-24 20:18:00,
2013-08-24 15:20:00,96.0,68.5,29.65,SE,135,10.4,10.4,41,0.00,CLR,,0.00,WeatherDisplay:10.37,2013-08-24 20:20:00,
2013-08-24 15:22:00,96.0,68.5,29.65,SSE,157,16.0,16.0,41,0.00,CLR,,0.00,WeatherDisplay:10.37,2013-08-24 20:22:00,
2013-08-24 15:23:00,96.0,68.5,29.65,South,180,16.1,16.1,41,0.00,CLR,,0.00,WeatherDisplay:10.37,2013-08-24 20:23:00,
2013-08-24 15:26:00,96.0,68.5,29.65,SE,135,11.0,11.0,41,0.00,CLR,,0.00,WeatherDisplay:10.37,2013-08-24 20:26:00,
2013-08-24 15:27:00,96.0,68.5,29.65,SSE,157,15.0,15.0,41,0.00,CLR,,0.00,WeatherDisplay:10.37,2013-08-24 20:27:00,
2013-08-24 15:28:00,96.0,68.5,29.65,ESE,112,15.0,15.0,41,0.00,CLR,,0.00,WeatherDisplay:10.37,2013-08-24 20:28:00,
2013-08-24 15:29:00,96.0,68.5,29.65,ESE,112,13.8,13.8,41,0.00,CLR,,0.00,WeatherDisplay:10.37,2013-08-24 20:29:00,
2013-08-24 15:30:00,96.0,68.5,29.65,East,90,11.5,11.5,41,0.00,CLR,,0.00,WeatherDisplay:10.37,2013-08-24 20:30:00,
2013-08-24 15:31:00,96.0,67.8,29.65,South,180,10.0,10.0,40,0.00,CLR,,0.00,WeatherDisplay:10.37,2013-08-24 20:31:00,
2013-08-24 15:33:00,96.0,67.8,29.65,South,180,12.7,12.7,40,0.00,CLR,,0.00,WeatherDisplay:10.37,2013-08-24 20:33:00,
2013-08-24 15:34:00,96.0,67.8,29.65,SSE,157,10.4,10.4,40,0.00,CLR,,0.00,WeatherDisplay:10.37,2013-08-24 20:34:00,
2013-08-24 15:35:00,96.0,68.5,29.65,SE,135,9.2,9.2,41,0.00,CLR,,0.00,WeatherDisplay:10.37,2013-08-24 20:35:00,
2013-08-24 15:36:00,96.0,68.5,29.65,South,180,10.4,10.4,41,0.00,CLR,,0.00,WeatherDisplay:10.37,2013-08-24 20:36:00,
2013-08-24 15:39:00,96.0,68.5,29.65,SE,135,13.0,13.0,41,0.00,CLR,,0.00,WeatherDisplay:10.37,2013-08-24 20:39:00,
2013-08-24 15:40:00,96.0,68.5,29.65,SE,135,13.0,13.0,41,0.00,CLR,,0.00,WeatherDisplay:10.37,2013-08-24 20:40:00,
2013-08-24 15:42:00,96.0,68.5,29.65,SE,135,7.0,7.0,41,0.00,CLR,,0.00,WeatherDisplay:10.37,2013-08-24 20:42:00,
2013-08-24 15:44:00,96.0,68.5,29.65,SE,135,11.5,11.5,41,0.00,CLR,,0.00,WeatherDisplay:10.37,2013-08-24 20:44:00,
2013-08-24 15:45:00,96.0,68.5,29.65,SSE,157,11.5,11.5,41,0.00,CLR,,0.00,WeatherDisplay:10.37,2013-08-24 20:45:00,
2013-08-24 15:47:00,97.0,68.7,29.65,SSE,157,12.7,12.7,40,0.00,CLR,,0.00,WeatherDisplay:10.37,2013-08-24 20:47:00,
2013-08-24 15:49:00,97.0,69.4,29.65,South,180,9.0,9.0,41,0.00,CLR,,0.00,WeatherDisplay:10.37,2013-08-24 20:49:00,
2013-08-24 15:50:00,97.0,67.9,29.65,NE,45,9.2,9.2,39,0.00,CLR,,0.00,WeatherDisplay:10.37,2013-08-24 20:50:00,
2013-08-24 15:51:00,97.0,67.9,29.65,ENE,67,10.4,10.4,39,0.00,CLR,,0.00,WeatherDisplay:10.37,2013-08-24 20:51:00,
2013-08-24 15:52:00,97.0,67.9,29.65,ESE,112,8.1,8.1,39,0.00,CLR,,0.00,WeatherDisplay:10.37,2013-08-24 20:52:00,
2013-08-24 15:54:00,97.0,67.9,29.65,ENE,67,4.6,4.6,39,0.00,CLR,,0.00,WeatherDisplay:10.37,2013-08-24 20:54:00,
2013-08-24 15:55:00,97.0,67.9,29.65,SE,135,3.5,3.5,39,0.00,CLR,,0.00,WeatherDisplay:10.37,2013-08-24 20:55:00,
2013-08-24 15:56:00,98.0,68.8,29.65,SE,135,8.1,8.1,39,0.00,CLR,,0.00,WeatherDisplay:10.37,2013-08-24 20:56:00,
2013-08-24 15:57:00,98.0,67.3,29.65,SE,135,9.2,9.2,37,0.00,CLR,,0.00,WeatherDisplay:10.37,2013-08-24 20:57:00,
2013-08-24 15:59:00,97.0,66.4,29.65,SE,135,8.1,8.1,37,0.00,CLR,,0.00,WeatherDisplay:10.37,2013-08-24 20:59:00,
2013-08-24 16:00:00,97.0,67.2,29.65,ENE,67,8.1,8.1,38,0.00,CLR,,0.00,WeatherDisplay:10.37,2013-08-24 21:00:00,
2013-08-24 16:01:00,97.0,67.2,29.65,SSE,157,8.1,8.1,38,0.00,CLR,,0.00,WeatherDisplay:10.37,2013-08-24 21:01:00,
2013-08-24 16:02:00,97.0,67.2,29.65,SSE,157,10.4,10.4,38,0.00,CLR,,0.00,WeatherDisplay:10.37,2013-08-24 21:02:00,
2013-08-24 16:04:00,98.0,68.1,29.65,NE,45,10.4,10.4,38,0.00,CLR,,0.00,WeatherDisplay:10.37,2013-08-24 21:04:00,
2013-08-24 16:05:00,98.0,68.1,29.65,East,90,6.9,6.9,38,0.00,CLR,,0.00,WeatherDisplay:10.37,2013-08-24 21:05:00,
2013-08-24 16:06:00,98.0,68.1,29.65,East,90,10.4,10.4,38,0.00,CLR,,0.00,WeatherDisplay:10.37,2013-08-24 21:06:00,
2013-08-24 16:07:00,98.0,68.1,29.65,SE,135,15.0,15.0,38,0.00,CLR,,0.00,WeatherDisplay:10.37,2013-08-24 21:07:00,
2013-08-24 16:09:00,97.0,67.9,29.65,SE,135,11.5,11.5,39,0.00,CLR,,0.00,WeatherDisplay:10.37,2013-08-24 21:09:00,
2013-08-24 16:10:00,97.0,67.9,29.65,SSE,157,11.5,11.5,39,0.00,CLR,,0.00,WeatherDisplay:10.37,2013-08-24 21:10:00,
2013-08-24 16:11:00,97.0,67.9,29.65,ESE,112,10.4,10.4,39,0.00,CLR,,0.00,WeatherDisplay:10.37,2013-08-24 21:11:00,
2013-08-24 16:12:00,97.0,67.9,29.65,South,180,11.5,11.5,39,0.00,CLR,,0.00,WeatherDisplay:10.37,2013-08-24 21:12:00,
2013-08-24 16:15:00,96.0,67.8,29.65,South,180,6.9,6.9,40,0.00,CLR,,0.00,WeatherDisplay:10.37,2013-08-24 21:15:00,
2013-08-24 16:16:00,96.0,67.8,29.65,East,90,5.8,5.8,40,0.00,CLR,,0.00,WeatherDisplay:10.37,2013-08-24 21:16:00,
2013-08-24 16:17:00,96.0,67.8,29.65,ESE,112,8.1,8.1,40,0.00,CLR,,0.00,WeatherDisplay:10.37,2013-08-24 21:17:00,
2013-08-24 16:20:00,97.0,68.7,29.65,ESE,112,3.5,3.5,40,0.00,CLR,,0.00,WeatherDisplay:10.37,2013-08-24 21:20:00,
2013-08-24 16:21:00,97.0,68.7,29.65,NE,45,4.6,4.6,40,0.00,CLR,,0.00,WeatherDisplay:10.37,2013-08-24 21:21:00,
2013-08-24 16:22:00,97.0,67.9,29.65,ENE,67,5.8,5.8,39,0.00,CLR,,0.00,WeatherDisplay:10.37,2013-08-24 21:22:00,
2013-08-24 16:23:00,97.0,67.9,29.65,ESE,112,6.0,6.0,39,0.00,CLR,,0.00,WeatherDisplay:10.37,2013-08-24 21:23:00,
2013-08-24 16:25:00,98.0,68.8,29.65,SE,135,9.2,9.2,39,0.00,CLR,,0.00,WeatherDisplay:10.37,2013-08-24 21:25:00,
2013-08-24 16:26:00,98.0,68.8,29.65,East,90,4.6,4.6,39,0.00,CLR,,0.00,WeatherDisplay:10.37,2013-08-24 21:26:00,
2013-08-24 16:27:00,98.0,68.8,29.65,ESE,112,9.2,9.2,39,0.00,CLR,,0.00,WeatherDisplay:10.37,2013-08-24 21:27:00,
2013-08-24 16:28:00,98.0,68.1,29.65,SE,135,3.5,3.5,38,0.00,CLR,,0.00,WeatherDisplay:10.37,2013-08-24 21:28:00,
2013-08-24 16:30:00,98.0,67.3,29.65,South,180,10.4,10.4,37,0.00,CLR,,0.00,WeatherDisplay:10.37,2013-08-24 21:30:00,
2013-08-24 16:31:00,98.0,67.3,29.65,East,90,10.4,10.4,37,0.00,CLR,,0.00,WeatherDisplay:10.37,2013-08-24 21:31:00,
2013-08-24 16:32:00,98.0,67.3,29.65,SSE,157,10.4,10.4,37,0.00,CLR,,0.00,WeatherDisplay:10.37,2013-08-24 21:32:00,
2013-08-24 16:33:00,98.0,67.3,29.65,SE,135,10.4,10.4,37,0.00,CLR,,0.00,WeatherDisplay:10.37,2013-08-24 21:33:00,
2013-08-24 16:36:00,98.0,68.1,29.65,SE,135,10.4,10.4,38,0.00,CLR,,0.00,WeatherDisplay:10.37,2013-08-24 21:36:00,
2013-08-24 16:37:00,98.0,68.1,29.65,East,90,10.4,10.4,38,0.00,CLR,,0.00,WeatherDisplay:10.37,2013-08-24 21:37:00,
2013-08-24 16:38:00,98.0,68.1,29.65,East,90,4.6,4.6,38,0.00,CLR,,0.00,WeatherDisplay:10.37,2013-08-24 21:38:00,
2013-08-24 16:41:00,98.0,68.1,29.65,East,90,10.4,10.4,38,0.00,CLR,,0.00,WeatherDisplay:10.37,2013-08-24 21:41:00,
2013-08-24 16:43:00,98.0,67.3,29.65,ESE,112,4.6,4.6,37,0.00,CLR,,0.00,WeatherDisplay:10.37,2013-08-24 21:43:00,
2013-08-24 16:44:00,97.0,67.2,29.65,SSE,157,14.0,14.0,38,0.00,CLR,,0.00,WeatherDisplay:10.37,2013-08-24 21:44:00,
2013-08-24 16:46:00,97.0,67.9,29.65,SE,135,12.7,12.7,39,0.00,CLR,,0.00,WeatherDisplay:10.37,2013-08-24 21:46:00,
2013-08-24 16:48:00,97.0,67.9,29.65,SSE,157,11.5,11.5,39,0.00,CLR,,0.00,WeatherDisplay:10.37,2013-08-24 21:48:00,
2013-08-24 16:49:00,97.0,67.9,29.65,NE,45,11.5,11.5,39,0.00,CLR,,0.00,WeatherDisplay:10.37,2013-08-24 21:49:00,
2013-08-24 16:51:00,97.0,67.9,29.65,SSE,157,6.9,6.9,39,0.00,CLR,,0.00,WeatherDisplay:10.37,2013-08-24 21:51:00,
2013-08-24 16:53:00,97.0,67.9,29.65,East,90,9.2,9.2,39,0.00,CLR,,0.00,WeatherDisplay:10.37,2013-08-24 21:53:00,
2013-08-24 16:55:00,97.0,67.9,29.65,ENE,67,8.1,8.1,39,0.00,CLR,,0.00,WeatherDisplay:10.37,2013-08-24 21:55:00,
2013-08-24 16:56:00,97.0,67.9,29.65,SSE,157,9.2,9.2,39,0.00,CLR,,0.00,WeatherDisplay:10.37,2013-08-24 21:56:00,
2013-08-24 16:57:00,97.0,67.9,29.65,East,90,10.4,10.4,39,0.00,CLR,,0.00,WeatherDisplay:10.37,2013-08-24 21:57:00,
2013-08-24 16:58:00,97.0,67.9,29.65,SE,135,9.2,9.2,39,0.00,CLR,,0.00,WeatherDisplay:10.37,2013-08-24 21:58:00,
2013-08-24 16:59:00,97.0,67.9,29.65,ESE,112,11.5,11.5,39,0.00,CLR,,0.00,WeatherDisplay:10.37,2013-08-24 21:59:00,
2013-08-24 17:00:00,97.0,67.9,29.65,SSE,157,10.4,10.4,39,0.00,CLR,,0.00,WeatherDisplay:10.37,2013-08-24 22:00:00,
2013-08-24 17:01:00,96.0,67.0,29.65,SE,135,12.7,12.7,39,0.00,CLR,,0.00,WeatherDisplay:10.37,2013-08-24 22:01:00,
2013-08-24 17:02:00,96.0,67.0,29.65,SE,135,12.7,12.7,39,0.00,CLR,,0.00,WeatherDisplay:10.37,2013-08-24 22:02:00,
2013-08-24 17:03:00,96.0,67.0,29.65,ESE,112,11.5,11.5,39,0.00,CLR,,0.00,WeatherDisplay:10.37,2013-08-24 22:03:00,
2013-08-24 17:04:00,96.0,67.0,29.65,SE,135,12.7,12.7,39,0.00,CLR,,0.00,WeatherDisplay:10.37,2013-08-24 22:04:00,
2013-08-24 17:05:00,96.0,67.0,29.65,East,90,15.0,15.0,39,0.00,CLR,,0.00,WeatherDisplay:10.37,2013-08-24 22:05:00,
2013-08-24 17:07:00,96.0,67.0,29.65,SSE,157,11.5,11.5,39,0.00,CLR,,0.00,WeatherDisplay:10.37,2013-08-24 22:07:00,
2013-08-24 17:08:00,96.0,67.0,29.65,ESE,112,8.1,8.1,39,0.00,CLR,,0.00,WeatherDisplay:10.37,2013-08-24 22:08:00,
2013-08-24 17:09:00,96.0,67.0,29.65,ESE,112,9.2,9.2,39,0.00,CLR,,0.00,WeatherDisplay:10.37,2013-08-24 22:09:00,
2013-08-24 17:10:00,96.0,67.0,29.65,South,180,13.8,13.8,39,0.00,CLR,,0.00,WeatherDisplay:10.37,2013-08-24 22:10:00,
2013-08-24 17:13:00,96.0,67.0,29.65,SE,135,3.5,3.5,39,0.00,CLR,,0.00,WeatherDisplay:10.37,2013-08-24 22:13:00,
2013-08-24 17:14:00,97.0,67.2,29.65,SE,135,11.5,11.5,38,0.00,CLR,,0.00,WeatherDisplay:10.37,2013-08-24 22:14:00,
2013-08-24 17:15:00,97.0,67.9,29.65,SSE,157,10.4,10.4,39,0.00,CLR,,0.00,WeatherDisplay:10.37,2013-08-24 22:15:00,
2013-08-24 17:18:00,97.0,66.4,29.65,South,180,9.2,9.2,37,0.00,CLR,,0.00,WeatherDisplay:10.37,2013-08-24 22:18:00,
2013-08-24 17:19:00,97.0,66.4,29.65,North,360,8.1,8.1,37,0.00,CLR,,0.00,WeatherDisplay:10.37,2013-08-24 22:19:00,
2013-08-24 17:20:00,97.0,66.4,29.65,SW,225,5.8,5.8,37,0.00,CLR,,0.00,WeatherDisplay:10.37,2013-08-24 22:20:00,
2013-08-24 17:23:00,97.0,66.4,29.65,SE,135,5.8,5.8,37,0.00,CLR,,0.00,WeatherDisplay:10.37,2013-08-24 22:23:00,
2013-08-24 17:24:00,97.0,66.4,29.65,SE,135,13.0,13.0,37,0.00,CLR,,0.00,WeatherDisplay:10.37,2013-08-24 22:24:00,
2013-08-24 17:25:00,97.0,67.2,29.65,NE,45,12.7,12.7,38,0.00,CLR,,0.00,WeatherDisplay:10.37,2013-08-24 22:25:00,
2013-08-24 17:28:00,97.0,67.9,29.65,ENE,67,6.9,6.9,39,0.00,CLR,,0.00,WeatherDisplay:10.37,2013-08-24 22:28:00,
2013-08-24 17:29:00,97.0,67.9,29.65,SSE,157,6.9,6.9,39,0.00,CLR,,0.00,WeatherDisplay:10.37,2013-08-24 22:29:00,
2013-08-24 17:30:00,97.0,67.9,29.65,ESE,112,10.0,10.0,39,0.00,CLR,,0.00,WeatherDisplay:10.37,2013-08-24 22:30:00,
2013-08-24 17:33:00,96.0,67.8,29.65,ENE,67,10.4,10.4,40,0.00,CLR,,0.00,WeatherDisplay:10.37,2013-08-24 22:33:00,
2013-08-24 17:34:00,96.0,67.8,29.65,SE,135,13.8,13.8,40,0.00,CLR,,0.00,WeatherDisplay:10.37,2013-08-24 22:34:00,
2013-08-24 17:35:00,95.0,66.9,29.65,SE,135,17.3,17.3,40,0.00,CLR,,0.00,WeatherDisplay:10.37,2013-08-24 22:35:00,
2013-08-24 17:38:00,95.0,66.9,29.65,East,90,11.5,11.5,40,0.00,CLR,,0.00,WeatherDisplay:10.37,2013-08-24 22:38:00,
2013-08-24 17:39:00,95.0,66.9,29.65,SE,135,15.0,15.0,40,0.00,CLR,,0.00,WeatherDisplay:10.37,2013-08-24 22:39:00,
2013-08-24 17:40:00,94.0,66.0,29.65,SE,135,9.0,9.0,40,0.00,CLR,,0.00,WeatherDisplay:10.37,2013-08-24 22:40:00,
2013-08-24 17:44:00,94.0,66.0,29.65,SE,135,10.4,10.4,40,0.00,CLR,,0.00,WeatherDisplay:10.37,2013-08-24 22:44:00,
2013-08-24 17:45:00,94.0,66.0,29.65,SE,135,12.7,12.7,40,0.00,CLR,,0.00,WeatherDisplay:10.37,2013-08-24 22:45:00,
2013-08-24 17:46:00,94.0,66.0,29.65,SE,135,11.5,11.5,40,0.00,CLR,,0.00,WeatherDisplay:10.37,2013-08-24 22:46:00,
2013-08-24 17:49:00,94.0,66.0,29.65,SSE,157,8.1,8.1,40,0.00,CLR,,0.00,WeatherDisplay:10.37,2013-08-24 22:49:00,
2013-08-24 17:50:00,94.0,66.0,29.65,SE,135,11.5,11.5,40,0.00,CLR,,0.00,WeatherDisplay:10.37,2013-08-24 22:50:00,
2013-08-24 17:51:00,94.0,66.0,29.65,SSE,157,9.2,9.2,40,0.00,CLR,,0.00,WeatherDisplay:10.37,2013-08-24 22:51:00,
2013-08-24 17:54:00,94.0,66.0,29.65,SSE,157,11.5,11.5,40,0.00,CLR,,0.00,WeatherDisplay:10.37,2013-08-24 22:54:00,
2013-08-24 17:56:00,94.0,66.7,29.65,South,180,11.5,11.5,41,0.00,CLR,,0.00,WeatherDisplay:10.37,2013-08-24 22:56:00,
2013-08-24 17:57:00,94.0,66.7,29.65,SE,135,10.4,10.4,41,0.00,CLR,,0.00,WeatherDisplay:10.37,2013-08-24 22:57:00,
2013-08-24 17:59:00,94.0,66.0,29.65,SE,135,10.4,10.4,40,0.00,CLR,,0.00,WeatherDisplay:10.37,2013-08-24 22:59:00,
2013-08-24 18:01:00,94.0,66.0,29.65,South,180,11.5,11.5,40,0.00,CLR,,0.00,WeatherDisplay:10.37,2013-08-24 23:01:00,
2013-08-24 18:02:00,93.0,65.1,29.65,ESE,112,10.4,10.4,40,0.00,CLR,,0.00,WeatherDisplay:10.37,2013-08-24 23:02:00,
2013-08-24 18:04:00,93.0,65.1,29.65,ESE,112,5.0,5.0,40,0.00,CLR,,0.00,WeatherDisplay:10.37,2013-08-24 23:04:00,
2013-08-24 18:06:00,93.0,65.1,29.65,East,90,3.5,3.5,40,0.00,CLR,,0.00,WeatherDisplay:10.37,2013-08-24 23:06:00,
2013-08-24 18:07:00,93.0,65.1,29.65,ESE,112,7.0,7.0,40,0.00,CLR,,0.00,WeatherDisplay:10.37,2013-08-24 23:07:00,
2013-08-24 18:09:00,93.0,65.1,29.65,South,180,10.4,10.4,40,0.00,CLR,,0.00,WeatherDisplay:10.37,2013-08-24 23:09:00,
2013-08-24 18:11:00,93.0,65.1,29.65,SE,135,10.4,10.4,40,0.00,CLR,,0.00,WeatherDisplay:10.37,2013-08-24 23:11:00,
2013-08-24 18:12:00,93.0,65.1,29.65,SE,135,9.2,9.2,40,0.00,CLR,,0.00,WeatherDisplay:10.37,2013-08-24 23:12:00,
2013-08-24 18:13:00,93.0,65.8,29.65,ESE,112,6.9,6.9,41,0.00,CLR,,0.00,WeatherDisplay:10.37,2013-08-24 23:13:00,
2013-08-24 18:14:00,93.0,65.1,29.65,SE,135,4.6,4.6,40,0.00,CLR,,0.00,WeatherDisplay:10.37,2013-08-24 23:14:00,
2013-08-24 18:16:00,93.0,65.1,29.65,East,90,3.5,3.5,40,0.00,CLR,,0.00,WeatherDisplay:10.37,2013-08-24 23:16:00,
2013-08-24 18:17:00,93.0,65.8,29.65,SE,135,3.5,3.5,41,0.00,CLR,,0.00,WeatherDisplay:10.37,2013-08-24 23:17:00,
2013-08-24 18:18:00,93.0,65.1,29.65,SE,135,4.6,4.6,40,0.00,CLR,,0.00,WeatherDisplay:10.37,2013-08-24 23:18:00,
2013-08-24 18:20:00,93.0,65.8,29.65,SE,135,6.0,6.0,41,0.00,CLR,,0.00,WeatherDisplay:10.37,2013-08-24 23:20:00,
2013-08-24 18:21:00,93.0,66.5,29.65,SE,135,6.9,6.9,42,0.00,CLR,,0.00,WeatherDisplay:10.37,2013-08-24 23:21:00,
2013-08-24 18:22:00,93.0,66.5,29.65,SE,135,9.2,9.2,42,0.00,CLR,,0.00,WeatherDisplay:10.37,2013-08-24 23:22:00,
2013-08-24 18:23:00,93.0,66.5,29.65,ESE,112,6.9,6.9,42,0.00,CLR,,0.00,WeatherDisplay:10.37,2013-08-24 23:23:00,
2013-08-24 18:25:00,93.0,66.5,29.65,SE,135,9.2,9.2,42,0.00,CLR,,0.00,WeatherDisplay:10.37,2013-08-24 23:25:00,
2013-08-24 18:27:00,93.0,66.5,29.65,South,180,3.5,3.5,42,0.00,CLR,,0.00,WeatherDisplay:10.37,2013-08-24 23:27:00,
2013-08-24 18:28:00,93.0,66.5,29.65,NE,45,5.8,5.8,42,0.00,CLR,,0.00,WeatherDisplay:10.37,2013-08-24 23:28:00,
2013-08-24 18:30:00,93.0,66.5,29.65,South,180,4.0,4.6,42,0.00,CLR,,0.00,WeatherDisplay:10.37,2013-08-24 23:30:00,
2013-08-24 18:32:00,92.0,65.6,29.65,SSE,157,8.1,8.1,42,0.00,CLR,,0.00,WeatherDisplay:10.37,2013-08-24 23:32:00,
2013-08-24 18:33:00,92.0,65.6,29.65,SE,135,5.8,5.8,42,0.00,CLR,,0.00,WeatherDisplay:10.37,2013-08-24 23:33:00,
2013-08-24 18:35:00,92.0,66.3,29.65,SE,135,10.4,10.4,43,0.00,CLR,,0.00,WeatherDisplay:10.37,2013-08-24 23:35:00,
2013-08-24 18:37:00,92.0,65.6,29.65,ESE,112,5.8,5.8,42,0.00,CLR,,0.00,WeatherDisplay:10.37,2013-08-24 23:37:00,
2013-08-24 18:38:00,92.0,66.3,29.65,SE,135,4.6,4.6,43,0.00,CLR,,0.00,WeatherDisplay:10.37,2013-08-24 23:38:00,
2013-08-24 18:41:00,92.0,67.0,29.65,East,90,9.2,9.2,44,0.00,CLR,,0.00,WeatherDisplay:10.37,2013-08-24 23:41:00,
2013-08-24 18:42:00,92.0,67.0,29.65,SE,135,5.8,5.8,44,0.00,CLR,,0.00,WeatherDisplay:10.37,2013-08-24 23:42:00,
2013-08-24 18:43:00,92.0,67.0,29.65,SE,135,3.5,3.5,44,0.00,CLR,,0.00,WeatherDisplay:10.37,2013-08-24 23:43:00,
2013-08-24 18:46:00,91.0,66.1,29.65,East,90,1.2,1.2,44,0.00,CLR,,0.00,WeatherDisplay:10.37,2013-08-24 23:46:00,
2013-08-24 18:47:00,91.0,66.1,29.65,East,90,1.2,1.2,44,0.00,CLR,,0.00,WeatherDisplay:10.37,2013-08-24 23:47:00,
2013-08-24 18:48:00,91.0,66.1,29.65,SSE,157,3.0,3.0,44,0.00,CLR,,0.00,WeatherDisplay:10.37,2013-08-24 23:48:00,
2013-08-24 18:51:00,91.0,66.7,29.65,East,90,3.5,3.5,45,0.00,CLR,,0.00,WeatherDisplay:10.37,2013-08-24 23:51:00,
2013-08-24 18:52:00,91.0,66.7,29.65,East,90,3.5,3.5,45,0.00,CLR,,0.00,WeatherDisplay:10.37,2013-08-24 23:52:00,
2013-08-24 18:53:00,91.0,66.7,29.65,East,90,3.5,3.5,45,0.00,CLR,,0.00,WeatherDisplay:10.37,2013-08-24 23:53:00,
2013-08-24 18:56:00,91.0,67.3,29.65,South,180,1.0,0.0,46,0.00,CLR,,0.00,WeatherDisplay:10.37,2013-08-24 23:56:00,
2013-08-24 18:57:00,91.0,66.7,29.65,North,360,1.0,1.0,45,0.00,CLR,,0.00,WeatherDisplay:10.37,2013-08-24 23:57:00,
2013-08-24 18:58:00,91.0,66.7,29.65,NW,315,2.3,2.3,45,0.00,CLR,,0.00,WeatherDisplay:10.37,2013-08-24 23:58:00,
2013-08-24 19:02:00,91.0,67.3,29.65,SSE,157,3.5,3.5,46,0.00,CLR,,0.00,WeatherDisplay:10.37,2013-08-25 00:02:00,
2013-08-24 19:03:00,91.0,67.3,29.65,SSE,157,2.3,0.0,46,0.00,CLR,,0.00,WeatherDisplay:10.37,2013-08-25 00:03:00,
2013-08-24 19:04:00,91.0,67.3,29.65,SSE,157,0.0,0.0,46,0.00,CLR,,0.00,WeatherDisplay:10.37,2013-08-25 00:04:00,
2013-08-24 19:07:00,91.0,67.3,29.65,East,90,2.3,2.3,46,0.00,CLR,,0.00,WeatherDisplay:10.37,2013-08-25 00:07:00,
2013-08-24 19:08:00,91.0,67.3,29.65,SE,135,1.2,1.8,46,0.00,CLR,,0.00,WeatherDisplay:10.37,2013-08-25 00:08:00,
2013-08-24 19:09:00,91.0,67.3,29.65,SE,135,3.5,3.5,46,0.00,CLR,,0.00,WeatherDisplay:10.37,2013-08-25 00:09:00,
2013-08-24 19:12:00,90.0,67.1,29.65,SE,135,3.5,3.5,47,0.00,CLR,,0.00,WeatherDisplay:10.37,2013-08-25 00:12:00,
2013-08-24 19:13:00,90.0,66.4,29.65,ESE,112,5.0,5.0,46,0.00,CLR,,0.00,WeatherDisplay:10.37,2013-08-25 00:13:00,
2013-08-24 19:14:00,90.0,67.1,29.65,East,90,4.6,4.6,47,0.00,CLR,,0.00,WeatherDisplay:10.37,2013-08-25 00:14:00,
2013-08-24 19:15:00,90.0,67.1,29.65,East,90,3.5,3.5,47,0.00,CLR,,0.00,WeatherDisplay:10.37,2013-08-25 00:15:00,
2013-08-24 19:17:00,91.0,68.0,29.65,East,90,0.0,0.0,47,0.00,CLR,,0.00,WeatherDisplay:10.37,2013-08-25 00:17:00,
2013-08-24 19:18:00,90.0,67.1,29.65,East,90,1.2,1.2,47,0.00,CLR,,0.00,WeatherDisplay:10.37,2013-08-25 00:18:00,
2013-08-24 19:19:00,90.0,67.1,29.65,East,90,2.3,0.0,47,0.00,CLR,,0.00,WeatherDisplay:10.37,2013-08-25 00:19:00,
2013-08-24 19:20:00,90.0,67.1,29.65,East,90,0.0,0.0,47,0.00,CLR,,0.00,WeatherDisplay:10.37,2013-08-25 00:20:00,
2013-08-24 19:22:00,90.0,67.1,29.65,East,90,0.0,0.0,47,0.00,CLR,,0.00,WeatherDisplay:10.37,2013-08-25 00:22:00,
2013-08-24 19:24:00,90.0,67.1,29.65,East,90,0.0,0.0,47,0.00,CLR,,0.00,WeatherDisplay:10.37,2013-08-25 00:24:00,
2013-08-24 19:25:00,90.0,67.1,29.65,East,90,0.0,0.0,47,0.00,CLR,,0.00,WeatherDisplay:10.37,2013-08-25 00:25:00,
2013-08-24 19:27:00,90.0,67.1,29.65,East,90,0.0,0.0,47,0.00,CLR,,0.00,WeatherDisplay:10.37,2013-08-25 00:27:00,
2013-08-24 19:28:00,90.0,67.1,29.65,East,90,0.0,0.0,47,0.00,CLR,,0.00,WeatherDisplay:10.37,2013-08-25 00:28:00,
2013-08-24 19:29:00,90.0,67.7,29.65,East,90,0.0,0.0,48,0.00,CLR,,0.00,WeatherDisplay:10.37,2013-08-25 00:29:00,
2013-08-24 19:30:00,90.0,67.7,29.65,East,90,0.0,0.0,48,0.00,CLR,,0.00,WeatherDisplay:10.37,2013-08-25 00:30:00,
2013-08-24 19:33:00,90.0,67.7,29.65,East,90,0.0,0.0,48,0.00,CLR,,0.00,WeatherDisplay:10.37,2013-08-25 00:33:00,
2013-08-24 19:34:00,90.0,67.7,29.65,East,90,0.0,0.0,48,0.00,CLR,,0.00,WeatherDisplay:10.37,2013-08-25 00:34:00,
2013-08-24 19:35:00,90.0,68.3,29.65,East,90,0.0,0.0,49,0.00,CLR,,0.00,WeatherDisplay:10.37,2013-08-25 00:35:00,
2013-08-24 19:38:00,90.0,68.3,29.65,East,90,0.0,0.0,49,0.00,CLR,,0.00,WeatherDisplay:10.37,2013-08-25 00:38:00,
2013-08-24 19:39:00,89.0,67.4,29.65,East,90,0.0,0.0,49,0.00,CLR,,0.00,WeatherDisplay:10.37,2013-08-25 00:39:00,
2013-08-24 19:40:00,89.0,67.4,29.65,East,90,0.0,0.0,49,0.00,CLR,,0.00,WeatherDisplay:10.37,2013-08-25 00:40:00,
2013-08-24 19:43:00,89.0,67.4,29.65,East,90,0.0,0.0,49,0.00,CLR,,0.00,WeatherDisplay:10.37,2013-08-25 00:43:00,
2013-08-24 19:44:00,89.0,67.9,29.65,East,90,0.0,0.0,50,0.00,CLR,,0.00,WeatherDisplay:10.37,2013-08-25 00:44:00,
2013-08-24 19:45:00,89.0,67.9,29.65,East,90,0.0,0.0,50,0.00,CLR,,0.00,WeatherDisplay:10.37,2013-08-25 00:45:00,
2013-08-24 19:46:00,89.0,67.9,29.65,East,90,0.0,0.0,50,0.00,CLR,,0.00,WeatherDisplay:10.37,2013-08-25 00:46:00,
2013-08-24 19:49:00,88.0,67.6,29.65,East,90,0.0,0.0,51,0.00,CLR,,0.00,WeatherDisplay:10.37,2013-08-25 00:49:00,
2013-08-24 19:50:00,88.0,67.6,29.65,East,90,0.0,0.0,51,0.00,CLR,,0.00,WeatherDisplay:10.37,2013-08-25 00:50:00,
2013-08-24 19:51:00,88.0,67.6,29.65,East,90,0.0,0.0,51,0.00,CLR,,0.00,WeatherDisplay:10.37,2013-08-25 00:51:00,
2013-08-24 19:54:00,88.0,68.2,29.65,East,90,0.0,0.0,52,0.00,CLR,,0.00,WeatherDisplay:10.37,2013-08-25 00:54:00,
2013-08-24 19:56:00,88.0,68.2,29.65,East,90,0.0,0.0,52,0.00,CLR,,0.00,WeatherDisplay:10.37,2013-08-25 00:56:00,
2013-08-24 19:59:00,87.0,67.2,29.65,East,90,0.0,0.0,52,0.00,CLR,,0.00,WeatherDisplay:10.37,2013-08-25 00:59:00,
2013-08-24 20:01:00,87.0,67.8,29.65,East,90,0.0,0.0,53,0.00,CLR,,0.00,WeatherDisplay:10.37,2013-08-25 01:01:00,
2013-08-24 20:04:00,87.0,68.3,29.65,East,90,0.0,0.0,54,0.00,CLR,,0.00,WeatherDisplay:10.37,2013-08-25 01:04:00,
2013-08-24 20:06:00,87.0,68.3,29.65,East,90,0.0,0.0,54,0.00,CLR,,0.00,WeatherDisplay:10.37,2013-08-25 01:06:00,
2013-08-24 20:07:00,86.0,67.4,29.65,East,90,0.0,0.0,54,0.00,CLR,,0.00,WeatherDisplay:10.37,2013-08-25 01:07:00,
2013-08-24 20:09:00,86.0,67.4,29.65,East,90,0.0,0.0,54,0.00,CLR,,0.00,WeatherDisplay:10.37,2013-08-25 01:09:00,
2013-08-24 20:11:00,86.0,67.4,29.65,East,90,0.0,0.0,54,0.00,CLR,,0.00,WeatherDisplay:10.37,2013-08-25 01:11:00,
2013-08-24 20:12:00,86.0,68.5,29.65,East,90,0.0,0.0,56,0.00,CLR,,0.00,WeatherDisplay:10.37,2013-08-25 01:12:00,
2013-08-24 20:14:00,86.0,69.0,29.65,East,90,0.0,0.0,57,0.00,CLR,,0.00,WeatherDisplay:10.37,2013-08-25 01:14:00,
2013-08-24 20:15:00,85.0,68.1,29.65,East,90,0.0,0.0,57,0.00,CLR,,0.00,WeatherDisplay:10.37,2013-08-25 01:15:00,
2013-08-24 20:16:00,85.0,68.1,29.65,East,90,0.0,0.0,57,0.00,CLR,,0.00,WeatherDisplay:10.37,2013-08-25 01:16:00,
2013-08-24 20:19:00,85.0,69.1,29.65,East,90,0.0,0.0,59,0.00,CLR,,0.00,WeatherDisplay:10.37,2013-08-25 01:19:00,
2013-08-24 20:20:00,85.0,69.1,29.65,East,90,0.0,0.0,59,0.00,CLR,,0.00,WeatherDisplay:10.37,2013-08-25 01:20:00,
2013-08-24 20:21:00,85.0,69.1,29.65,East,90,0.0,0.0,59,0.00,CLR,,0.00,WeatherDisplay:10.37,2013-08-25 01:21:00,
2013-08-24 20:22:00,85.0,69.1,29.65,East,90,0.0,0.0,59,0.00,CLR,,0.00,WeatherDisplay:10.37,2013-08-25 01:22:00,
2013-08-24 20:24:00,85.0,70.0,29.65,East,90,0.0,0.0,61,0.00,CLR,,0.00,WeatherDisplay:10.37,2013-08-25 01:24:00,
2013-08-24 20:25:00,85.0,70.5,29.65,East,90,0.0,0.0,62,0.00,CLR,,0.00,WeatherDisplay:10.37,2013-08-25 01:25:00,
2013-08-24 20:26:00,85.0,70.5,29.65,East,90,1.0,1.0,62,0.00,CLR,,0.00,WeatherDisplay:10.37,2013-08-25 01:26:00,
2013-08-24 20:28:00,85.0,70.5,29.65,East,90,2.3,2.3,62,0.00,CLR,,0.00,WeatherDisplay:10.37,2013-08-25 01:28:00,
2013-08-24 20:29:00,85.0,71.0,29.65,East,90,3.0,3.0,63,0.00,CLR,,0.00,WeatherDisplay:10.37,2013-08-25 01:29:00,
2013-08-24 20:31:00,85.0,71.0,29.65,East,90,0.0,0.0,63,0.00,CLR,,0.00,WeatherDisplay:10.37,2013-08-25 01:31:00,
2013-08-24 20:33:00,85.0,70.5,29.65,North,360,3.5,3.5,62,0.00,CLR,,0.00,WeatherDisplay:10.37,2013-08-25 01:33:00,
2013-08-24 20:34:00,85.0,70.5,29.65,SSE,157,1.2,1.2,62,0.00,CLR,,0.00,WeatherDisplay:10.37,2013-08-25 01:34:00,
2013-08-24 20:36:00,85.0,70.0,29.65,East,90,3.5,3.5,61,0.00,CLR,,0.00,WeatherDisplay:10.37,2013-08-25 01:36:00,
2013-08-24 20:37:00,85.0,69.1,29.65,East,90,4.6,4.6,59,0.00,CLR,,0.00,WeatherDisplay:10.37,2013-08-25 01:37:00,
2013-08-24 20:38:00,85.0,69.1,29.65,East,90,3.5,3.5,59,0.00,CLR,,0.00,WeatherDisplay:10.37,2013-08-25 01:38:00,
2013-08-24 20:39:00,85.0,69.1,29.65,East,90,3.5,3.5,59,0.00,CLR,,0.00,WeatherDisplay:10.37,2013-08-25 01:39:00,
2013-08-24 20:41:00,85.0,69.1,29.65,ESE,112,4.6,4.6,59,0.00,CLR,,0.00,WeatherDisplay:10.37,2013-08-25 01:41:00,
2013-08-24 20:42:00,86.0,69.0,29.65,ENE,67,7.0,7.0,57,0.00,CLR,,0.00,WeatherDisplay:10.37,2013-08-25 01:42:00,
2013-08-24 20:43:00,86.0,70.0,29.65,ESE,112,6.9,6.9,59,0.00,CLR,,0.00,WeatherDisplay:10.37,2013-08-25 01:43:00,
2013-08-24 20:45:00,86.0,69.5,29.65,ESE,112,3.5,3.5,58,0.00,CLR,,0.00,WeatherDisplay:10.37,2013-08-25 01:45:00,
2013-08-24 20:46:00,86.0,69.5,29.65,North,360,1.2,1.2,58,0.00,CLR,,0.00,WeatherDisplay:10.37,2013-08-25 01:46:00,
2013-08-24 20:51:00,86.0,69.5,29.65,SE,135,5.8,5.8,58,0.00,CLR,,0.00,WeatherDisplay:10.37,2013-08-25 01:51:00,
2013-08-24 20:52:00,86.0,69.0,29.65,SE,135,4.6,4.6,57,0.00,CLR,,0.00,WeatherDisplay:10.37,2013-08-25 01:52:00,
2013-08-24 20:56:00,87.0,70.4,29.65,SE,135,3.5,3.5,58,0.00,CLR,,0.00,WeatherDisplay:10.37,2013-08-25 01:56:00,
2013-08-24 20:58:00,87.0,69.9,29.65,SE,135,9.0,9.0,57,0.00,CLR,,0.00,WeatherDisplay:10.37,2013-08-25 01:58:00,
2013-08-24 21:01:00,87.0,69.9,29.65,SE,135,3.5,3.5,57,0.00,CLR,,0.00,WeatherDisplay:10.37,2013-08-25 02:01:00,
2013-08-24 21:02:00,87.0,69.9,29.65,ESE,112,4.6,4.6,57,0.00,CLR,,0.00,WeatherDisplay:10.37,2013-08-25 02:02:00,
2013-08-24 21:03:00,87.0,69.9,29.65,SE,135,2.3,2.3,57,0.00,CLR,,0.00,WeatherDisplay:10.37,2013-08-25 02:03:00,
2013-08-24 21:06:00,87.0,69.4,29.65,SE,135,5.0,5.0,56,0.00,CLR,,0.00,WeatherDisplay:10.37,2013-08-25 02:06:00,
2013-08-24 21:07:00,87.0,69.4,29.65,SSE,157,8.1,8.1,56,0.00,CLR,,0.00,WeatherDisplay:10.37,2013-08-25 02:07:00,
2013-08-24 21:09:00,87.0,69.9,29.65,NE,45,2.3,2.3,57,0.00,CLR,,0.00,WeatherDisplay:10.37,2013-08-25 02:09:00,
2013-08-24 21:11:00,87.0,69.4,29.65,East,90,3.0,3.0,56,0.00,CLR,,0.00,WeatherDisplay:10.37,2013-08-25 02:11:00,
2013-08-24 21:12:00,87.0,69.9,29.65,ENE,67,5.8,5.8,57,0.00,CLR,,0.00,WeatherDisplay:10.37,2013-08-25 02:12:00,
2013-08-24 21:14:00,87.0,69.9,29.65,SE,135,4.0,4.0,57,0.00,CLR,,0.00,WeatherDisplay:10.37,2013-08-25 02:14:00,
2013-08-24 21:16:00,87.0,69.9,29.65,East,90,3.5,3.5,57,0.00,CLR,,0.00,WeatherDisplay:10.37,2013-08-25 02:16:00,
2013-08-24 21:17:00,87.0,69.4,29.65,East,90,3.5,0.0,56,0.00,CLR,,0.00,WeatherDisplay:10.37,2013-08-25 02:17:00,
2013-08-24 21:19:00,86.0,69.0,29.65,East,90,3.5,3.5,57,0.00,CLR,,0.00,WeatherDisplay:10.37,2013-08-25 02:19:00,
2013-08-24 21:21:00,86.0,69.0,29.65,East,90,3.5,3.5,57,0.00,CLR,,0.00,WeatherDisplay:10.37,2013-08-25 02:21:00,
2013-08-24 21:22:00,86.0,69.0,29.65,East,90,3.5,3.5,57,0.00,CLR,,0.00,WeatherDisplay:10.37,2013-08-25 02:22:00,
2013-08-24 21:24:00,86.0,69.0,29.65,East,90,2.3,2.3,57,0.00,CLR,,0.00,WeatherDisplay:10.37,2013-08-25 02:24:00,
2013-08-24 21:26:00,86.0,69.5,29.65,ESE,112,3.5,3.5,58,0.00,CLR,,0.00,WeatherDisplay:10.37,2013-08-25 02:26:00,
2013-08-24 21:27:00,86.0,69.5,29.65,SE,135,2.3,2.3,58,0.00,CLR,,0.00,WeatherDisplay:10.37,2013-08-25 02:27:00,
2013-08-24 21:28:00,86.0,69.0,29.65,SE,135,3.5,3.5,57,0.00,CLR,,0.00,WeatherDisplay:10.37,2013-08-25 02:28:00,
2013-08-24 21:30:00,86.0,69.5,29.65,SE,135,4.6,4.6,58,0.00,CLR,,0.00,WeatherDisplay:10.37,2013-08-25 02:30:00,
2013-08-24 21:32:00,86.0,69.5,29.65,SE,135,3.0,3.0,58,0.00,CLR,,0.00,WeatherDisplay:10.37,2013-08-25 02:32:00,
2013-08-24 21:33:00,86.0,69.5,29.65,SE,135,3.5,3.5,58,0.00,CLR,,0.00,WeatherDisplay:10.37,2013-08-25 02:33:00,
2013-08-24 21:35:00,86.0,69.5,29.65,SE,135,0.0,0.0,58,0.00,CLR,,0.00,WeatherDisplay:10.37,2013-08-25 02:35:00,
2013-08-24 21:37:00,86.0,69.5,29.65,SE,135,0.0,0.0,58,0.00,CLR,,0.00,WeatherDisplay:10.37,2013-08-25 02:37:00,
2013-08-24 21:38:00,86.0,69.5,29.65,SE,135,0.0,0.0,58,0.00,CLR,,0.00,WeatherDisplay:10.37,2013-08-25 02:38:00,
2013-08-24 21:40:00,85.0,69.1,29.65,SE,135,3.5,3.5,59,0.00,CLR,,0.00,WeatherDisplay:10.37,2013-08-25 02:40:00,
2013-08-24 21:42:00,85.0,69.1,29.65,SE,135,0.0,0.0,59,0.00,CLR,,0.00,WeatherDisplay:10.37,2013-08-25 02:42:00,
2013-08-24 21:43:00,85.0,69.1,29.65,ESE,112,1.2,1.2,59,0.00,CLR,,0.00,WeatherDisplay:10.37,2013-08-25 02:43:00,
2013-08-24 21:44:00,85.0,69.6,29.65,ESE,112,3.5,3.5,60,0.00,CLR,,0.00,WeatherDisplay:10.37,2013-08-25 02:44:00,
2013-08-24 21:45:00,85.0,69.6,29.65,ESE,112,3.5,3.5,60,0.00,CLR,,0.00,WeatherDisplay:10.37,2013-08-25 02:45:00,
2013-08-24 21:47:00,85.0,69.1,29.65,ESE,112,0.0,0.0,59,0.00,CLR,,0.00,WeatherDisplay:10.37,2013-08-25 02:47:00,
2013-08-24 21:48:00,85.0,69.1,29.65,ESE,112,0.0,0.0,59,0.00,CLR,,0.00,WeatherDisplay:10.37,2013-08-25 02:48:00,
2013-08-24 21:49:00,85.0,69.6,29.65,ESE,112,0.0,0.0,60,0.00,CLR,,0.00,WeatherDisplay:10.37,2013-08-25 02:49:00,
2013-08-24 21:50:00,85.0,69.6,29.65,ESE,112,0.0,0.0,60,0.00,CLR,,0.00,WeatherDisplay:10.37,2013-08-25 02:50:00,
2013-08-24 21:53:00,85.0,70.0,29.65,ESE,112,0.0,0.0,61,0.00,CLR,,0.00,WeatherDisplay:10.37,2013-08-25 02:53:00,
2013-08-24 21:54:00,84.0,69.1,29.65,ESE,112,0.0,0.0,61,0.00,CLR,,0.00,WeatherDisplay:10.37,2013-08-25 02:54:00,
2013-08-24 21:55:00,84.0,69.1,29.65,ESE,112,0.0,0.0,61,0.00,CLR,,0.00,WeatherDisplay:10.37,2013-08-25 02:55:00,
2013-08-24 21:58:00,84.0,69.6,29.65,ESE,112,0.0,0.0,62,0.00,CLR,,0.00,WeatherDisplay:10.37,2013-08-25 02:58:00,
2013-08-24 21:59:00,84.0,70.0,29.65,ESE,112,0.0,0.0,63,0.00,CLR,,0.00,WeatherDisplay:10.37,2013-08-25 02:59:00,
2013-08-24 22:00:00,84.0,70.0,29.65,ESE,112,0.0,0.0,63,0.00,CLR,,0.00,WeatherDisplay:10.37,2013-08-25 03:00:00,
2013-08-24 22:03:00,84.0,70.5,29.65,ESE,112,0.0,0.0,64,0.00,CLR,,0.00,WeatherDisplay:10.37,2013-08-25 03:03:00,
2013-08-24 22:04:00,83.0,69.6,29.65,ESE,112,0.0,0.0,64,0.00,CLR,,0.00,WeatherDisplay:10.37,2013-08-25 03:04:00,
2013-08-24 22:06:00,83.0,69.1,29.65,ESE,112,0.0,0.0,63,0.00,CLR,,0.00,WeatherDisplay:10.37,2013-08-25 03:06:00,
2013-08-24 22:08:00,83.0,70.0,29.65,ESE,112,0.0,0.0,65,0.00,CLR,,0.00,WeatherDisplay:10.37,2013-08-25 03:08:00,
2013-08-24 22:09:00,83.0,70.0,29.65,ESE,112,0.0,0.0,65,0.00,CLR,,0.00,WeatherDisplay:10.37,2013-08-25 03:09:00,
2013-08-24 22:11:00,83.0,70.5,29.65,ESE,112,0.0,0.0,66,0.00,CLR,,0.00,WeatherDisplay:10.37,2013-08-25 03:11:00,
2013-08-24 22:13:00,83.0,70.5,29.65,ESE,112,1.2,1.2,66,0.00,CLR,,0.00,WeatherDisplay:10.37,2013-08-25 03:13:00,
2013-08-24 22:14:00,83.0,70.5,29.65,ESE,112,1.2,0.0,66,0.00,CLR,,0.00,WeatherDisplay:10.37,2013-08-25 03:14:00,
2013-08-24 22:15:00,83.0,70.5,29.65,ESE,112,0.0,0.0,66,0.00,CLR,,0.00,WeatherDisplay:10.37,2013-08-25 03:15:00,
2013-08-24 22:16:00,83.0,70.5,29.65,ESE,112,0.0,0.0,66,0.00,CLR,,0.00,WeatherDisplay:10.37,2013-08-25 03:16:00,
2013-08-24 22:18:00,83.0,70.5,29.65,ESE,112,0.0,0.0,66,0.00,CLR,,0.00,WeatherDisplay:10.37,2013-08-25 03:18:00,
2013-08-24 22:19:00,83.0,70.5,29.65,ESE,112,0.0,0.0,66,0.00,CLR,,0.00,WeatherDisplay:10.37,2013-08-25 03:19:00,
2013-08-24 22:20:00,83.0,70.9,29.65,ESE,112,0.0,0.0,67,0.00,CLR,,0.00,WeatherDisplay:10.37,2013-08-25 03:20:00,
2013-08-24 22:21:00,83.0,70.9,29.65,ESE,112,0.0,0.0,67,0.00,CLR,,0.00,WeatherDisplay:10.37,2013-08-25 03:21:00,
2013-08-24 22:23:00,83.0,71.8,29.65,North,360,9.2,9.2,69,0.00,CLR,,0.00,WeatherDisplay:10.37,2013-08-25 03:23:00,
2013-08-24 22:24:00,83.0,71.8,29.65,East,90,4.6,4.6,69,0.00,CLR,,0.00,WeatherDisplay:10.37,2013-08-25 03:24:00,
2013-08-24 22:25:00,83.0,70.9,29.65,SE,135,7.0,7.0,67,0.00,CLR,,0.00,WeatherDisplay:10.37,2013-08-25 03:25:00,
2013-08-24 22:26:00,83.0,71.3,29.65,SSE,157,9.2,9.2,68,0.00,CLR,,0.00,WeatherDisplay:10.37,2013-08-25 03:26:00,
2013-08-24 22:28:00,83.0,70.9,29.65,SE,135,2.3,2.3,67,0.00,CLR,,0.00,WeatherDisplay:10.37,2013-08-25 03:28:00,
2013-08-24 22:29:00,83.0,70.9,29.65,SE,135,5.8,5.8,67,0.00,CLR,,0.00,WeatherDisplay:10.37,2013-08-25 03:29:00,
2013-08-24 22:30:00,83.0,70.9,29.65,East,90,3.5,3.5,67,0.00,CLR,,0.00,WeatherDisplay:10.37,2013-08-25 03:30:00,
2013-08-24 22:31:00,83.0,70.9,29.65,East,90,3.5,3.5,67,0.00,CLR,,0.00,WeatherDisplay:10.37,2013-08-25 03:31:00,
2013-08-24 22:33:00,83.0,70.5,29.65,East,90,3.5,3.5,66,0.00,CLR,,0.00,WeatherDisplay:10.37,2013-08-25 03:33:00,
2013-08-24 22:34:00,83.0,70.5,29.65,East,90,3.5,3.5,66,0.00,CLR,,0.00,WeatherDisplay:10.37,2013-08-25 03:34:00,
2013-08-24 22:35:00,83.0,70.5,29.65,East,90,3.5,3.5,66,0.00,CLR,,0.00,WeatherDisplay:10.37,2013-08-25 03:35:00,
2013-08-24 22:37:00,84.0,71.9,29.65,South,180,2.3,2.3,67,0.00,CLR,,0.00,WeatherDisplay:10.37,2013-08-25 03:37:00,
2013-08-24 22:39:00,84.0,71.9,29.65,East,90,3.5,3.5,67,0.00,CLR,,0.00,WeatherDisplay:10.37,2013-08-25 03:39:00,
2013-08-24 22:40:00,84.0,71.9,29.65,East,90,3.5,3.5,67,0.00,CLR,,0.00,WeatherDisplay:10.37,2013-08-25 03:40:00,
2013-08-24 22:42:00,84.0,71.9,29.65,North,360,1.2,1.2,67,0.00,CLR,,0.00,WeatherDisplay:10.37,2013-08-25 03:42:00,
2013-08-24 22:44:00,84.0,71.9,29.65,North,360,0.0,0.0,67,0.00,CLR,,0.00,WeatherDisplay:10.37,2013-08-25 03:44:00,
2013-08-24 22:45:00,84.0,71.9,29.65,North,360,0.0,0.0,67,0.00,CLR,,0.00,WeatherDisplay:10.37,2013-08-25 03:45:00,
2013-08-24 22:46:00,84.0,71.9,29.65,ENE,67,3.5,3.5,67,0.00,CLR,,0.00,WeatherDisplay:10.37,2013-08-25 03:46:00,
2013-08-24 22:47:00,84.0,71.9,29.65,ENE,67,3.5,3.5,67,0.00,CLR,,0.00,WeatherDisplay:10.37,2013-08-25 03:47:00,
2013-08-24 22:50:00,84.0,71.9,29.65,SE,135,3.5,3.5,67,0.00,CLR,,0.00,WeatherDisplay:10.37,2013-08-25 03:50:00,
2013-08-24 22:51:00,84.0,72.3,29.65,East,90,3.5,3.5,68,0.00,CLR,,0.00,WeatherDisplay:10.37,2013-08-25 03:51:00,
2013-08-24 22:52:00,84.0,72.3,29.65,East,90,2.3,0.0,68,0.00,CLR,,0.00,WeatherDisplay:10.37,2013-08-25 03:52:00,
2013-08-24 22:55:00,83.0,70.9,29.65,SE,135,3.5,3.5,67,0.00,CLR,,0.00,WeatherDisplay:10.37,2013-08-25 03:55:00,
2013-08-24 22:56:00,83.0,70.9,29.65,ESE,112,3.5,3.5,67,0.00,CLR,,0.00,WeatherDisplay:10.37,2013-08-25 03:56:00,
2013-08-24 22:57:00,84.0,72.3,29.65,ESE,112,2.3,0.0,68,0.00,CLR,,0.00,WeatherDisplay:10.37,2013-08-25 03:57:00,
2013-08-24 23:00:00,83.0,70.9,29.65,SE,135,2.3,2.3,67,0.00,CLR,,0.00,WeatherDisplay:10.37,2013-08-25 04:00:00,
2013-08-24 23:01:00,83.0,70.9,29.65,SE,135,1.2,1.2,67,0.00,CLR,,0.00,WeatherDisplay:10.37,2013-08-25 04:01:00,
2013-08-24 23:02:00,83.0,70.9,29.65,SE,135,0.0,0.1,67,0.00,CLR,,0.00,WeatherDisplay:10.37,2013-08-25 04:02:00,
2013-08-24 23:06:00,83.0,70.9,29.65,ESE,112,0.0,0.0,67,0.00,CLR,,0.00,WeatherDisplay:10.37,2013-08-25 04:06:00,
2013-08-24 23:07:00,83.0,70.9,29.65,East,90,2.3,2.3,67,0.00,CLR,,0.00,WeatherDisplay:10.37,2013-08-25 04:07:00,
2013-08-24 23:11:00,83.0,71.8,29.65,East,90,1.2,0.0,69,0.00,CLR,,0.00,WeatherDisplay:10.37,2013-08-25 04:11:00,
2013-08-24 23:13:00,83.0,71.8,29.65,East,90,0.0,0.0,69,0.00,CLR,,0.00,WeatherDisplay:10.37,2013-08-25 04:13:00,
2013-08-24 23:16:00,83.0,71.8,29.65,East,90,1.2,1.2,69,0.00,CLR,,0.00,WeatherDisplay:10.37,2013-08-25 04:16:00,
2013-08-24 23:17:00,83.0,71.8,29.65,SE,135,4.0,4.0,69,0.00,CLR,,0.00,WeatherDisplay:10.37,2013-08-25 04:17:00,
2013-08-24 23:18:00,83.0,70.9,29.65,ESE,112,4.6,4.6,67,0.00,CLR,,0.00,WeatherDisplay:10.37,2013-08-25 04:18:00,
2013-08-24 23:21:00,83.0,71.8,29.65,SE,135,3.5,0.0,69,0.00,CLR,,0.00,WeatherDisplay:10.37,2013-08-25 04:21:00,
2013-08-24 23:22:00,83.0,71.8,29.65,SE,135,1.2,1.2,69,0.00,CLR,,0.00,WeatherDisplay:10.37,2013-08-25 04:22:00,
2013-08-24 23:23:00,83.0,71.3,29.65,East,90,3.5,3.5,68,0.00,CLR,,0.00,WeatherDisplay:10.37,2013-08-25 04:23:00,
2013-08-24 23:26:00,83.0,71.8,29.65,ESE,112,0.0,0.0,69,0.00,CLR,,0.00,WeatherDisplay:10.37,2013-08-25 04:26:00,
2013-08-24 23:27:00,83.0,71.8,29.65,ESE,112,0.0,0.0,69,0.00,CLR,,0.00,WeatherDisplay:10.37,2013-08-25 04:27:00,
2013-08-24 23:28:00,83.0,71.8,29.65,SE,135,3.5,3.5,69,0.00,CLR,,0.00,WeatherDisplay:10.37,2013-08-25 04:28:00,
2013-08-24 23:31:00,83.0,72.2,29.65,SE,135,3.5,3.5,70,0.00,CLR,,0.00,WeatherDisplay:10.37,2013-08-25 04:31:00,
2013-08-24 23:32:00,83.0,72.2,29.65,SE,135,3.5,3.5,70,0.00,CLR,,0.00,WeatherDisplay:10.37,2013-08-25 04:32:00,
2013-08-24 23:33:00,83.0,72.2,29.65,SE,135,3.5,3.5,70,0.00,CLR,,0.00,WeatherDisplay:10.37,2013-08-25 04:33:00,
2013-08-24 23:36:00,83.0,72.2,29.65,SE,135,3.5,3.5,70,0.00,CLR,,0.00,WeatherDisplay:10.37,2013-08-25 04:36:00,
2013-08-24 23:37:00,83.0,71.8,29.65,South,180,3.5,3.5,69,0.00,CLR,,0.00,WeatherDisplay:10.37,2013-08-25 04:37:00,
2013-08-24 23:38:00,83.0,72.2,29.65,South,180,3.5,0.0,70,0.00,CLR,,0.00,WeatherDisplay:10.37,2013-08-25 04:38:00,
2013-08-24 23:41:00,83.0,72.6,29.65,SSE,157,3.5,3.5,71,0.00,CLR,,0.00,WeatherDisplay:10.37,2013-08-25 04:41:00,
2013-08-24 23:42:00,83.0,72.2,29.65,SSE,157,3.5,3.5,70,0.00,CLR,,0.00,WeatherDisplay:10.37,2013-08-25 04:42:00,
2013-08-24 23:43:00,83.0,72.2,29.65,SSE,157,0.0,0.0,70,0.00,CLR,,0.00,WeatherDisplay:10.37,2013-08-25 04:43:00,
2013-08-24 23:44:00,83.0,72.2,29.65,SSE,157,0.0,0.0,70,0.00,CLR,,0.00,WeatherDisplay:10.37,2013-08-25 04:44:00,
2013-08-24 23:46:00,83.0,72.2,29.65,SSE,157,0.0,0.0,70,0.00,CLR,,0.00,WeatherDisplay:10.37,2013-08-25 04:46:00,
2013-08-24 23:47:00,83.0,71.8,29.65,ESE,112,4.0,4.0,69,0.00,CLR,,0.00,WeatherDisplay:10.37,2013-08-25 04:47:00,
2013-08-24 23:48:00,83.0,71.8,29.65,ESE,112,3.5,3.5,69,0.00,CLR,,0.00,WeatherDisplay:10.37,2013-08-25 04:48:00,
2013-08-24 23:49:00,82.0,71.2,29.65,ESE,112,3.5,3.5,70,0.00,CLR,,0.00,WeatherDisplay:10.37,2013-08-25 04:49:00,
2013-08-24 23:51:00,82.0,71.2,29.65,ESE,112,1.2,0.0,70,0.00,CLR,,0.00,WeatherDisplay:10.37,2013-08-25 04:51:00,
2013-08-24 23:55:00,82.0,71.2,29.65,ESE,112,0.0,0.0,70,0.00,CLR,,0.00,WeatherDisplay:10.37,2013-08-25 04:55:00,
2013-08-24 23:56:00,82.0,71.7,29.65,ESE,112,2.0,2.0,71,0.00,CLR,,0.00,WeatherDisplay:10.37,2013-08-25 04:56:00,
2013-08-24 23:57:00,82.0,71.7,29.65,ESE,112,3.5,3.5,71,0.00,CLR,,0.00,WeatherDisplay:10.37,2013-08-25 04:57:00,